GFSFLT2_prec_cloud_027.txt.gz
Cloud_Cover
100 100 100 100 100 100 57 90 100 97 27 92 70 100 100 94 48 86 17 100 59 56 68 5 5 5 5 0 0 0 0 0
100 100 100 72 100 78 69 100 100 48 81 99 100 100 100 100 60 100 55 18 48 5 60 5 5 6 3 0 0 0 0 0
100 100 95 100 100 100 100 100 47 100 100 100 100 100 75 92 86 67 100 75 5 16 4 5 4 0 0 0 0 0 0 0
100 100 100 100 100 100 97 98 96 100 100 100 100 100 100 87 100 55 34 5 5 5 0 1 0 0 0 0 0 0 0 0
100 100 100 100 100 68 98 100 99 100 100 100 100 100 100 100 54 8 22 5 0 2 2 5 75 3 0 0 0 0 0 0
99 100 100 97 100 100 100 100 100 100 100 96 52 73 63 100 69 6 12 5 5 5 5 4 0 0 0 0 0 0 0 0
100 100 100 100 100 100 100 100 100 100 100 72 88 66 55 47 5 5 5 5 5 4 5 5 5 0 0 0 0 0 0 0
100 96 100 100 98 100 100 100 100 100 100 98 6 8 5 5 5 5 5 5 5 4 2 5 0 0 0 0 0 0 0 0
92 97 45 100 100 100 100 100 100 100 100 100 100 93 49 19 6 46 92 22 5 82 5 6 0 0 0 0 0 0 0 0
96 100 100 100 100 100 100 100 100 100 100 100 100 100 100 99 100 89 89 48 100 17 4 1 5 5 5 7 6 5 4 0
100 100 100 100 100 100 100 100 100 100 100 100 100 100 100 77 35 50 26 3 3 5 14 26 56 65 6 5 65 7 5 0
93 100 98 100 100 100 100 100 100 100 100 100 100 100 82 5 3 0 3 5 6 74 84 70 11 5 4 4 2 3 0 0
100 66 100 100 100 100 100 100 100 100 100 100 98 2 0 0 4 5 5 4 2 1 3 1 1 2 0 0 0 0 0 1
68 70 76 100 100 100 80 36 60 100 93 28 0 0 0 0 2 1 5 5 5 4 0 0 0 0 0 0 0 0 5 4
28 27 12 30 70 22 0 0 0 0 0 0 2 5 2 37 65 11 5 4 4 4 5 5 1 2 1 3 2 1 5 0
35 8 22 69 5 3 5 5 45 19 5 0 2 15 4 5 5 5 5 5 5 3 0 0 3 0 2 5 5 5 5 5
5 28 26 25 87 20 14 5 5 2 0 0 0 4 28 10 5 5 3 0 0 5 5 5 5 2 5 5 5 5 76 99
97 96 82 95 84 29 5 5 5 5 5 4 4 1 0 0 0 0 0 5 5 5 5 44 5 5 4 5 2 5 5 44
21 5 22 48 5 5 5 5 35 5 1 2 0 0 0 0 4 5 7 6 83 5 5 5 5 5 5 5 1 1 1 2
53 5 5 30 52 12 12 93 72 5 3 5 0 5 8 44 30 24 5 58 3 5 5 6 62 56 51 77 7 2 0 0

GFSFLT2_prec_cloud_030.txt.gz
Cloud_Cover
100 100 100 80 89 100 100 100 100 100 100 100 90 20 6 66 100 84 53 100 100 100 52 76 49 81 8 5 4 0 0 0
100 100 100 100 100 100 100 100 100 100 100 54 24 18 87 100 100 100 100 100 93 87 100 56 25 99 3 0 0 0 0 0
100 100 100 100 100 100 100 100 100 100 89 100 100 100 97 100 100 100 99 85 98 89 30 81 46 14 0 0 0 0 0 0
100 100 100 100 100 100 100 100 100 100 100 100 100 100 100 100 100 94 5 5 5 11 5 5 2 0 0 0 0 0 0 0
100 100 100 100 100 100 100 100 100 100 100 100 100 100 100 12 5 5 7 5 18 5 7 0 0 0 0 0 0 0 0 0
100 100 100 100 100 100 100 100 100 100 100 100 100 72 6 5 4 5 2 0 5 5 0 4 0 0 0 0 0 0 0 0
100 100 100 100 100 100 100 100 100 100 100 100 100 95 36 67 10 52 100 91 12 7 40 5 5 2 0 0 0 0 0 0
100 100 100 100 100 95 81 82 100 100 100 100 100 100 100 100 100 100 66 5 46 100 71 41 22 2 0 0 0 0 0 0
100 98 84 80 59 69 100 100 100 100 100 100 100 100 100 100 100 100 100 100 100 100 85 5 3 0 2 0 3 1 0 0
100 68 98 61 99 100 100 100 100 100 100 100 100 100 100 100 100 100 100 98 100 100 100 19 0 2 5 5 6 5 5 4
79 79 78 99 100 100 100 100 100 100 100 100 100 100 100 100 100 100 100 100 100 100 21 0 0 0 5 24 85 75 12 5
97 100 96 100 100 100 100 100 100 100 100 100 100 100 100 100 100 100 100 100 76 14 0 0 0 0 4 5 4 3 1 4
100 99 100 100 100 100 100 100 100 100 100 100 100 100 100 100 98 24 1 0 2 2 0 0 0 3 3 0 1 4 25 32
67 57 90 18 73 93 97 90 100 100 96 99 100 100 78 0 0 2 0 0 1 3 6 10 5 5 5 5 4 3 2 93
97 53 20 29 90 93 91 63 23 70 45 11 5 3 0 1 0 0 4 16 44 20 12 5 5 5 5 5 7 3 5 4
35 5 5 32 77 70 5 5 5 5 5 5 5 5 4 0 1 1 1 1 0 0 4 5 5 5 5 6 77 82 94 71
5 40 68 28 6 5 5 5 5 5 5 80 87 63 5 4 0 0 0 0 0 4 5 6 5 6 5 16 98 100 100 100
5 5 5 5 5 5 5 5 17 5 28 100 98 18 5 3 0 0 2 5 3 30 71 76 100 93 96 100 100 100 100 100
5 5 5 5 5 6 54 63 72 81 75 71 68 8 5 4 3 5 5 5 6 57 82 36 81 86 95 100 100 100 100 100
1 1 5 5 5 5 56 44 45 93 93 92 0 0 4 5 5 5 5 24 85 84 91 34 99 88 95 100 100 100 100 100

GFSFLT2_prec_cloud_033.txt.gz
Cloud_Cover
100 100 100 100 100 100 100 100 100 100 100 100 100 100 100 79 58 100 100 100 100 100 86 100 83 27 30 40 24 5 3 0
100 100 100 100 100 100 100 100 100 100 100 100 100 100 100 100 100 100 100 61 76 100 100 8 14 47 5 46 18 5 2 0
100 100 100 100 100 100 100 100 100 100 100 100 100 100 100 100 100 100 100 100 99 6 34 8 5 5 5 4 0 0 0 0
100 100 100 100 100 100 100 98 100 100 100 100 100 100 100 100 100 100 100 100 98 5 6 4 0 0 0 0 0 0 0 0
100 100 100 100 100 100 100 100 100 100 99 100 100 100 100 100 100 100 100 99 9 4 0 5 22 3 2 0 3 0 0 0
100 100 100 100 100 100 100 100 100 100 100 100 100 100 92 100 100 76 13 47 22 92 8 5 9 59 100 100 94 1 5 0
100 100 100 100 100 100 100 100 100 100 100 100 100 100 100 100 100 78 69 88 41 6 56 95 100 98 76 100 60 38 4 0
100 100 100 100 100 100 100 100 100 97 100 100 100 100 100 100 100 86 88 100 100 100 84 100 100 87 93 49 25 98 5 5
100 100 100 100 100 100 100 100 100 100 100 96 99 100 100 100 100 100 100 100 100 100 100 100 100 100 100 100 100 42 5 48
99 100 100 100 100 99 100 100 100 100 100 100 100 100 100 100 100 100 100 100 100 100 91 99 96 100 100 99 5 0 3 7
91 73 84 80 98 100 100 100 100 100 100 100 100 100 100 100 89 71 88 58 47 100 86 63 98 46 2 26 5 5 5 2
100 100 100 98 86 94 94 100 100 100 100 100 100 100 100 100 100 100 85 94 99 79 56 6 2 0 0 0 0 0 0 5
100 100 84 32 77 76 95 44 82 100 100 40 57 68 100 100 100 100 100 100 100 100 7 0 0 0 0 0 0 0 3 5
100 97 73 97 83 22 5 13 46 76 4 49 62 62 2 5 5 4 25 3 0 0 2 3 0 3 3 5 5 5 5 4
100 100 41 98 78 24 47 80 57 5 14 61 71 5 5 5 5 5 5 0 0 4 5 4 5 5 6 5 5 2 14 5
80 56 55 9 5 5 5 5 82 38 5 14 5 5 15 20 5 2 0 3 1 5 5 5 5 9 12 42 30 35 84 5
78 14 5 5 5 5 5 5 5 5 10 17 16 35 7 5 4 4 2 5 5 5 8 54 5 27 62 58 31 7 8 97
25 5 6 2 5 5 5 5 5 10 76 5 47 56 38 16 5 4 5 5 5 5 62 5 96 20 97 96 82 89 90 68
7 5 5 1 2 5 5 5 5 44 36 76 70 73 42 77 5 5 5 5 5 5 20 11 38 35 82 98 100 75 100 100
5 5 0 0 2 5 21 50 25 59 94 60 68 95 100 6 5 5 5 5 5 5 62 93 54 15 96 82 90 45 98 98

GFSFLT2_prec_cloud_036.txt.gz
Cloud_Cover
100 100 100 100 100 100 100 100 100 100 100 100 100 100 100 100 100 100 100 100 100 100 100 100 100 100 100 30 84 23 2 5
100 100 100 100 100 100 100 100 100 100 100 100 100 100 100 100 100 100 100 100 100 100 100 100 98 100 12 6 5 0 4 0
100 100 100 99 100 100 100 100 100 100 100 100 100 100 100 100 100 100 100 100 100 100 61 94 100 48 5 3 4 0 0 0
100 100 100 100 100 100 100 100 100 100 100 100 100 100 100 100 100 100 100 99 90 100 100 35 4 8 5 4 1 0 0 21
100 100 100 100 100 100 100 100 100 100 100 100 100 100 100 100 100 100 100 100 100 100 96 31 5 5 3 0 3 0 3 100
100 100 100 100 100 100 100 100 100 100 100 99 73 98 100 100 100 100 100 100 100 100 61 8 37 74 100 68 12 6 68 37
100 100 100 100 100 100 100 100 100 100 100 100 100 99 100 100 100 79 96 79 46 5 10 55 86 100 100 100 100 100 100 100
100 100 100 100 100 100 100 100 100 100 100 100 100 100 100 100 100 99 95 100 71 63 100 100 80 100 100 100 97 100 0 12
100 100 100 100 100 100 100 100 100 100 100 100 100 100 100 100 100 92 90 100 100 100 100 100 100 100 98 8 3 1 5 17
100 100 100 100 100 100 100 100 100 100 100 100 100 99 70 88 87 100 100 100 100 100 100 87 18 87 100 100 99 89 14 0
100 100 100 100 100 100 100 100 100 100 100 100 100 93 100 100 100 100 98 81 100 100 100 100 100 100 2 3 7 12 0 0
58 47 33 68 52 69 69 99 99 81 39 5 6 49 93 94 100 98 58 71 84 97 50 32 19 0 0 0 0 0 2 3
100 100 100 100 100 100 100 93 45 21 5 5 2 0 0 0 0 0 0 0 0 0 0 0 0 0 0 0 0 2 5 0
100 100 87 100 100 38 7 5 5 5 2 0 1 5 5 5 0 3 1 5 3 0 0 0 0 0 0 0 1 2 0 0
100 100 100 76 100 30 6 3 0 0 3 5 5 5 5 0 4 5 5 5 4 0 0 0 3 0 0 0 0 0 2 0
100 78 73 27 100 5 4 0 0 0 0 0 5 5 2 5 5 5 5 5 0 0 0 2 0 3 4 5 0 4 5 5
94 22 6 92 29 2 0 57 98 83 5 18 54 19 5 5 3 5 5 5 2 3 2 21 78 34 5 5 3 3 33 12
0 16 80 11 5 6 4 3 5 5 5 5 23 15 74 6 5 5 5 0 0 1 3 6 5 4 5 5 10 64 100 88
43 41 4 5 5 0 0 0 2 5 5 5 73 97 89 5 5 29 4 0 0 2 5 5 5 10 5 5 84 11 100 100
5 1 2 5 5 4 5 5 5 5 5 72 82 100 37 5 41 8 5 5 5 5 5 5 81 71 75 12 77 100 100 49

GFSFLT2_prec_cloud_039.txt.gz
Cloud_Cover
100 100 100 100 100 100 100 100 100 100 100 100 100 100 100 100 100 100 100 100 99 99 100 86 98 80 56 100 100 70 37 100
100 100 100 100 100 100 100 100 100 100 100 100 100 100 100 100 100 100 100 100 100 100 99 72 86 51 100 100 100 88 93 21
100 100 100 100 100 100 100 100 100 100 100 100 100 100 100 100 100 100 100 100 100 100 100 100 45 80 100 100 96 78 80 5
100 100 100 100 100 100 100 100 100 100 100 100 100 100 100 100 100 100 100 100 100 100 68 99 100 100 100 99 5 28 4 3
100 100 100 100 100 100 100 100 100 100 100 100 100 100 100 100 100 100 100 100 100 100 94 100 100 100 84 9 5 2 2 0
100 100 100 100 100 100 100 100 100 100 100 100 100 100 100 100 100 100 100 94 95 100 100 17 99 95 8 51 56 10 21 15
100 100 100 100 100 100 100 100 100 100 100 100 100 100 100 100 100 100 100 100 100 100 95 78 100 100 100 100 80 100 100 100
100 100 100 100 100 100 100 100 100 100 100 100 100 100 100 100 100 100 100 85 100 100 38 63 98 93 95 100 100 100 100 100
100 100 100 100 100 100 100 100 100 100 100 100 100 100 100 100 100 100 100 100 100 100 97 80 95 8 42 5 5 96 80 48
100 100 100 100 100 100 100 100 100 100 100 100 100 100 88 98 100 94 36 10 26 4 37 4 2 4 18 56 8 2 2 0
100 100 100 100 100 100 100 100 100 100 100 99 100 100 79 65 63 5 5 4 0 1 0 0 0 0 0 0 0 0 0 0
100 100 100 100 100 100 100 100 100 100 83 67 76 81 95 100 17 5 5 1 0 0 0 0 0 0 0 0 0 0 0 0
100 36 75 93 100 100 100 92 100 100 100 100 100 100 100 88 5 0 0 0 0 0 0 0 0 0 0 0 0 0 0 0
100 71 100 93 90 100 100 100 100 63 43 31 7 5 5 5 5 0 0 0 0 1 0 0 0 0 0 0 0 0 0 0
92 100 100 100 48 52 73 100 100 38 6 5 3 5 2 5 5 0 0 0 0 5 0 0 0 0 0 0 0 0 4 5
100 100 100 100 100 100 100 87 17 4 0 0 5 5 4 5 4 4 5 0 0 3 0 0 0 0 0 5 5 5 5 5
88 100 92 79 20 59 11 0 0 0 0 0 0 0 3 5 24 91 75 5 2 3 5 5 1 5 4 26 26 5 0 5
100 98 5 3 1 76 10 1 0 0 0 14 58 97 75 66 22 17 11 7 0 0 0 0 0 1 0 4 4 5 14 66
15 0 0 2 100 100 6 4 0 0 13 27 22 81 58 70 92 90 94 39 4 4 4 6 5 4 5 58 88 91 91 23
0 2 0 0 68 71 6 5 0 4 5 43 56 80 100 60 100 100 85 84 45 34 54 80 74 8 5 43 94 35 86 60

GFSFLT2_prec_cloud_042.txt.gz
Cloud_Cover
100 100 100 100 100 100 100 100 100 100 100 100 100 100 99 100 100 100 100 100 66 100 100 100 100 100 100 100 100 98 100 99
100 100 100 100 100 100 100 100 100 100 100 87 100 100 100 100 100 100 100 100 100 100 99 100 100 100 100 98 99 100 100 76
100 100 100 100 100 100 100 100 100 100 100 100 100 85 100 100 100 100 100 99 87 100 100 100 100 100 100 99 22 29 80 5
100 100 100 100 100 100 100 100 100 100 100 100 100 100 100 100 100 100 100 100 100 100 100 100 100 100 100 27 35 5 50 16
100 100 100 100 100 100 100 100 100 100 100 100 100 100 100 100 100 100 73 100 100 100 100 100 100 100 100 94 99 96 11 5
100 100 100 100 100 100 100 100 100 100 100 100 100 100 100 100 100 100 100 100 100 94 100 100 100 100 100 100 100 19 9 74
100 100 100 100 100 100 100 100 100 100 98 100 100 100 100 100 93 100 100 88 100 100 100 100 100 100 100 53 10 4 3 2
100 100 100 100 100 100 100 100 100 100 100 100 100 100 100 100 100 98 100 100 100 100 100 100 100 81 37 12 1 0 0 0
100 100 100 100 100 100 100 100 100 100 100 100 100 100 100 100 100 100 100 100 100 100 100 26 12 13 4 5 0 0 0 0
100 100 100 100 100 100 100 100 100 100 100 100 100 100 100 100 100 100 100 100 100 93 76 6 18 5 4 0 0 0 0 0
100 100 100 100 100 100 100 100 100 100 100 100 100 100 100 100 100 100 100 100 100 100 17 5 3 1 0 0 0 0 0 0
100 100 100 100 100 100 100 100 100 100 100 100 100 100 100 100 100 100 84 66 41 6 5 0 0 0 0 0 0 0 0 0
100 100 100 100 100 100 100 100 100 100 100 100 100 86 100 100 94 100 71 5 4 2 0 0 0 0 0 0 0 0 0 0
25 93 100 94 100 100 100 100 95 57 66 64 100 78 65 32 21 31 5 5 0 2 0 0 2 0 0 0 0 4 5 5
96 100 100 100 100 100 95 100 86 100 100 100 94 96 44 90 24 1 4 6 49 76 14 5 5 0 0 0 0 0 4 5
100 100 100 60 100 98 98 100 100 100 100 100 100 76 12 0 5 5 5 66 10 59 97 60 81 8 3 0 0 3 5 5
100 58 78 100 100 99 70 56 39 5 5 2 0 0 1 5 5 5 16 70 91 100 100 98 95 59 6 0 1 5 5 5
61 91 100 100 100 48 34 5 5 5 0 0 4 5 5 5 5 7 98 15 88 75 46 82 85 18 5 5 5 5 5 6
9 12 99 100 76 0 5 36 6 5 5 5 5 5 11 100 100 100 72 93 97 90 26 6 12 41 5 5 5 5 5 47
7 36 100 58 1 0 17 90 26 78 69 94 100 100 100 100 100 100 100 100 99 100 99 56 55 51 5 5 5 5 5 6

GFSFLT2_prec_cloud_045.txt.gz
Cloud_Cover
100 100 100 100 100 100 100 100 100 100 100 100 100 100 100 99 99 100 100 94 96 100 100 16 5 70 100 100 99 86 100 100
100 100 100 100 100 100 100 100 100 100 100 100 100 92 100 100 100 100 98 81 92 100 47 99 100 100 100 100 97 100 100 66
100 100 100 100 100 100 100 100 100 100 100 100 100 100 100 100 100 100 100 100 100 100 91 100 100 100 97 18 78 20 98 91
100 100 100 100 100 100 100 100 100 100 99 100 100 100 100 100 100 100 100 100 100 100 100 100 100 62 5 14 8 37 34 26
100 100 100 100 100 100 100 100 100 100 100 100 100 100 100 100 100 99 100 100 100 86 100 38 87 48 17 5 4 36 100 5
100 100 100 100 100 100 100 100 100 100 100 100 100 100 100 100 100 100 100 96 100 97 100 96 89 6 100 100 100 64 99 69
100 100 100 100 100 100 100 100 100 100 100 100 100 100 100 100 99 100 100 100 100 90 100 10 14 17 92 100 33 5 1 2
100 100 100 100 100 100 100 100 100 100 100 100 100 100 100 100 100 34 95 61 26 76 100 100 100 100 100 99 76 5 5 4
100 100 100 100 100 100 100 100 100 100 100 100 100 100 100 100 100 100 100 63 100 97 100 100 100 100 100 64 36 12 5 0
100 100 100 100 100 100 100 100 100 100 100 100 100 100 100 100 100 100 100 100 100 100 100 100 94 100 19 6 5 2 0 0
100 100 100 100 100 100 100 100 100 100 100 100 100 100 100 100 100 100 100 100 100 100 100 89 27 23 43 5 0 0 0 0
100 65 100 100 100 100 100 100 100 100 100 100 100 100 100 100 100 100 100 100 100 66 36 52 18 28 4 0 0 0 0 0
100 100 100 100 100 100 100 100 100 100 100 100 100 100 100 100 100 100 100 16 97 100 100 85 5 0 5 5 5 29 3 1
100 100 100 100 100 100 100 100 100 100 100 100 100 100 99 99 74 42 46 100 100 100 34 2 5 5 5 80 86 91 99 85
100 100 100 100 100 100 100 100 100 100 100 100 89 83 96 72 99 97 100 55 14 3 4 7 5 5 96 45 5 5 5 5
100 100 100 100 100 70 97 92 100 97 98 98 100 100 100 100 61 12 5 5 5 23 5 6 5 54 100 100 96 49 5 4
88 98 86 100 100 99 94 60 67 65 52 59 45 5 5 5 5 5 15 58 55 81 99 100 81 100 95 100 100 34 5 5
9 11 84 96 90 68 30 96 31 21 77 5 5 4 4 5 40 88 97 58 100 100 29 31 96 92 99 76 98 57 7 5
76 70 40 83 80 100 39 26 5 2 6 5 5 56 10 35 90 98 96 86 100 99 41 99 84 62 78 68 68 99 99 62
100 100 100 100 100 100 38 0 6 38 99 100 100 100 87 99 80 78 100 100 99 100 100 98 78 93 25 93 99 100 93 81

GFSFLT2_prec_cloud_048.txt.gz
Cloud_Cover
100 100 100 100 100 100 100 100 100 100 100 100 100 100 100 100 100 58 57 55 100 24 28 5 5 5 4 60 98 100 100 100
82 100 100 100 100 100 100 100 100 100 100 100 100 100 100 100 100 61 11 73 65 5 5 5 5 9 98 100 100 100 99 100
100 100 100 100 100 100 100 100 100 100 100 100 100 100 100 100 100 100 100 100 79 54 12 100 100 100 97 3 10 7 5 5
100 100 100 100 100 100 100 100 100 100 100 100 100 100 100 100 99 100 100 100 90 86 100 91 100 13 13 35 90 5 2 5
100 100 100 100 100 100 100 100 100 100 100 100 100 100 100 100 100 100 100 100 100 100 100 100 77 42 15 2 2 5 5 5
100 100 100 100 100 100 100 100 100 100 100 100 100 100 100 100 100 100 100 100 100 94 75 8 100 28 5 19 7 82 7 47
100 100 100 100 100 100 100 100 100 100 100 100 100 100 100 100 100 100 100 100 100 100 100 94 13 53 27 12 99 15 100 13
100 100 100 100 100 100 100 100 100 100 100 100 100 100 100 100 100 97 68 100 81 95 98 100 62 100 98 26 13 84 7 5
100 100 100 100 100 100 100 100 100 100 100 100 100 100 100 100 100 100 100 100 100 99 71 76 7 65 7 71 17 10 100 94
100 100 100 100 100 100 100 100 100 100 100 100 100 100 100 100 100 100 100 100 100 19 52 100 100 100 98 99 11 27 54 5
87 100 100 100 100 100 100 100 100 100 100 100 100 99 100 100 100 100 100 100 100 100 100 100 100 90 45 7 33 25 2 0
95 100 100 100 100 100 100 100 100 100 100 100 100 100 100 100 100 98 49 94 95 100 98 25 88 25 8 5 5 0 0 0
50 98 100 100 100 100 100 100 100 100 100 100 100 100 100 100 100 100 100 100 100 96 100 74 7 42 7 0 0 0 0 4
100 29 30 5 61 98 97 100 94 100 100 100 99 100 100 100 100 100 100 88 65 31 6 6 5 5 1 5 2 0 1 5
100 100 100 100 100 72 66 100 100 100 100 100 100 100 99 100 90 99 67 85 58 7 5 0 5 5 20 18 5 5 13 59
100 100 100 100 100 92 98 89 100 100 99 97 100 100 100 100 99 96 26 18 5 5 5 60 96 76 69 25 48 35 6 5
100 100 100 100 100 100 100 100 100 99 98 76 96 100 100 100 44 4 2 5 16 10 100 88 99 100 26 43 77 66 72 46
100 100 100 100 100 100 100 100 92 8 32 85 93 95 47 5 18 36 50 97 80 70 100 100 100 66 100 91 97 5 5 84
19 89 100 100 100 100 100 100 100 100 93 100 7 28 13 10 45 96 68 100 100 100 84 98 94 84 60 100 7 5 52 76
100 100 100 100 100 100 100 90 100 100 94 65 31 65 76 99 96 100 100 100 36 100 100 90 82 100 34 5 5 13 17 77

GFSFLT2_prec_cloud_051.txt.gz
Cloud_Cover
100 100 100 100 100 100 100 100 100 100 100 100 100 100 100 99 76 85 95 24 1 1 5 5 11 5 5 4 4 96 93 46
100 100 100 100 100 100 100 100 100 100 100 100 100 100 100 100 100 80 100 58 39 100 75 48 6 5 5 99 96 57 53 14
100 100 100 100 100 100 100 100 100 100 100 100 100 100 100 100 100 100 100 5 15 72 20 5 100 98 80 77 100 24 9 23
100 100 100 100 100 100 100 100 100 100 100 100 100 100 100 100 100 100 100 46 100 64 97 77 99 100 100 100 75 94 100 99
100 100 100 100 100 100 100 100 100 100 100 100 100 100 100 100 100 100 100 54 79 100 100 100 100 100 84 82 16 13 5 5
100 100 100 100 100 100 100 100 100 100 100 100 100 100 100 100 100 100 100 100 51 87 100 100 48 24 46 87 58 5 5 4
100 100 100 100 100 100 100 100 100 100 100 100 100 100 100 100 100 100 96 100 100 100 79 93 99 90 76 87 41 24 54 65
100 100 100 100 100 100 100 100 100 100 100 100 100 100 100 100 100 100 100 100 94 100 99 100 88 61 38 100 97 58 15 5
100 100 100 100 100 100 100 100 100 100 100 100 100 100 100 100 100 100 98 84 100 100 66 61 73 100 76 99 89 1 5 30
100 100 100 100 100 100 100 100 100 100 100 100 100 100 100 100 100 100 100 100 100 100 100 100 91 92 11 5 43 11 7 59
100 100 100 100 100 100 100 100 100 100 100 100 100 100 100 56 100 100 100 100 100 100 76 56 79 33 7 55 42 8 19 5
100 100 100 100 100 100 100 100 100 100 100 100 100 100 100 100 100 97 100 100 100 68 61 87 98 63 47 43 9 5 5 0
96 97 100 100 100 100 100 100 100 100 100 100 100 100 100 100 100 100 100 95 100 69 6 20 46 91 47 64 4 3 0 0
28 59 58 100 100 100 100 100 100 100 100 100 100 100 100 100 93 37 64 100 100 27 38 5 5 11 13 5 14 6 1 5
100 20 5 12 64 84 79 92 100 100 99 100 100 100 63 96 96 50 99 70 11 9 5 5 23 29 5 9 5 5 8 5
21 86 100 82 52 66 100 91 97 93 100 100 100 100 100 94 99 100 98 67 14 5 5 37 52 75 96 100 66 87 6 13
90 100 100 100 100 73 70 94 17 85 100 100 100 98 100 100 97 75 31 5 30 53 65 97 100 98 100 27 8 5 5 5
100 100 100 100 83 66 97 100 100 100 97 82 56 100 99 92 74 26 74 93 82 96 99 100 100 100 54 5 5 5 5 5
100 100 93 99 96 92 100 100 100 100 100 100 100 100 87 73 63 100 99 98 100 100 100 100 100 95 75 5 5 5 5 5
69 36 95 98 100 100 100 100 100 100 100 100 100 100 100 100 95 92 98 96 99 100 100 100 100 71 100 42 5 5 5 5

GFSFLT2_prec_cloud_054.txt.gz
Cloud_Cover
100 100 100 100 100 100 100 100 99 100 100 100 100 100 100 100 100 98 100 90 100 96 100 53 5 27 12 4 0 0 3 4
100 100 100 100 100 100 100 100 100 100 100 100 100 100 100 100 100 100 100 100 100 100 100 83 88 8 5 4 5 5 6 38
100 100 100 100 100 100 100 100 100 100 100 100 100 100 100 100 100 100 100 100 100 100 100 100 100 96 37 5 15 61 100 100
100 100 100 100 100 100 100 100 100 100 100 100 100 100 100 100 100 100 100 100 100 100 100 100 100 100 23 76 100 100 91 89
100 100 100 100 100 100 100 100 100 100 100 100 100 100 100 100 100 100 100 100 100 100 48 100 100 73 98 100 100 77 14 90
100 100 100 100 100 100 100 100 100 100 100 100 100 100 100 100 100 100 100 100 100 100 100 100 100 100 99 95 67 100 100 94
100 100 100 100 100 100 100 100 100 100 100 100 100 100 100 100 100 100 100 100 100 100 100 100 100 98 41 88 84 18 32 89
100 100 100 100 100 100 100 100 100 100 100 100 100 100 100 100 100 100 100 100 100 100 100 100 100 100 98 100 27 20 98 8
100 100 100 100 100 100 100 100 100 100 100 100 100 100 100 100 100 100 100 100 100 100 100 100 100 9 39 17 97 99 6 22
100 94 100 100 100 100 100 100 100 100 100 100 100 100 100 100 100 100 100 100 39 100 100 90 5 51 100 100 75 20 31 5
100 100 100 100 100 100 100 100 100 100 100 100 100 100 100 100 100 94 100 100 99 72 100 70 97 100 100 71 18 5 5 22
100 100 100 100 100 100 100 100 100 100 100 100 100 100 100 96 100 100 100 90 100 100 100 100 100 31 16 16 5 5 5 5
100 95 100 100 100 100 100 100 100 100 100 100 100 100 100 100 100 100 100 100 100 100 100 39 33 38 16 5 5 5 2 0
99 81 80 96 100 100 100 100 100 100 100 100 100 100 100 100 100 100 100 100 99 100 100 7 5 5 8 28 39 7 6 4
100 96 60 70 96 100 100 100 100 100 100 100 100 100 100 100 100 100 85 43 58 100 82 6 38 5 47 21 48 50 5 5
90 76 69 100 100 93 99 62 42 82 100 100 100 100 100 100 100 100 99 92 100 99 25 8 5 5 44 97 100 78 5 5
99 55 29 97 100 100 100 100 99 71 79 97 100 100 100 100 100 100 100 100 90 88 21 5 42 100 100 100 100 24 34 60
100 100 38 69 57 98 94 92 97 60 100 100 100 100 100 100 100 100 100 100 100 100 65 100 91 98 100 100 100 100 79 38
100 100 91 86 5 5 93 100 100 100 100 100 96 100 100 100 100 100 100 100 100 100 100 100 98 100 100 100 99 100 100 28
100 98 92 100 83 32 100 100 100 100 100 100 100 100 100 100 100 100 100 100 100 100 100 100 100 100 100 100 95 17 69 50

GFSFLT2_prec_cloud_057.txt.gz
Cloud_Cover
100 100 100 100 100 100 100 100 100 100 100 95 100 100 100 100 100 100 100 100 100 100 100 100 72 79 24 95 72 5 4 4
100 100 100 100 100 100 100 100 100 100 100 100 100 100 100 100 100 100 100 100 100 100 100 98 100 100 100 57 24 16 5 5
100 100 100 100 100 100 100 100 100 100 100 100 100 100 100 100 100 99 100 100 100 100 100 100 100 100 91 99 82 41 14 5
100 100 100 100 100 100 100 100 100 100 100 100 100 100 100 100 100 100 100 100 100 100 100 100 100 100 100 97 76 68 80 100
100 100 100 100 100 100 100 100 100 100 100 100 100 100 100 100 100 100 98 100 100 100 94 100 100 66 83 72 82 100 100 100
100 100 100 100 100 100 100 100 100 100 100 100 100 100 100 100 100 100 100 100 100 81 100 97 100 100 77 100 100 97 100 93
100 100 100 100 100 100 100 100 100 100 100 100 100 100 100 100 100 100 100 97 100 100 100 100 68 84 100 100 100 100 100 100
100 100 100 100 100 100 100 100 100 100 100 100 100 100 100 100 100 100 100 100 100 100 100 100 100 100 100 100 100 100 57 11
100 100 100 100 100 100 100 100 100 100 100 100 100 100 100 100 100 100 100 100 100 100 100 100 100 100 19 92 62 83 96 99
100 100 100 100 100 100 100 100 100 100 100 100 100 100 100 100 100 100 100 100 100 100 100 100 100 100 73 42 8 65 100 82
13 74 93 100 100 100 100 100 100 100 100 100 100 100 100 100 100 100 100 100 100 100 100 100 98 66 90 93 100 82 96 33
97 100 100 100 100 100 100 100 100 100 100 100 100 100 100 100 100 100 100 100 100 100 96 100 100 99 100 100 100 62 44 15
100 100 100 100 100 100 100 100 100 100 100 100 100 100 100 100 100 100 100 100 100 100 100 100 100 98 100 29 60 34 5 5
99 100 100 53 100 100 100 100 100 100 100 100 100 100 100 100 100 100 100 100 100 100 100 100 100 80 39 28 17 83 70 17
100 99 97 100 100 100 100 100 100 100 100 100 100 100 100 100 100 100 100 100 100 100 71 83 100 91 12 5 14 87 69 78
100 100 100 100 100 98 92 59 100 100 100 100 100 100 100 100 100 100 100 100 93 99 100 100 98 94 100 34 74 98 99 52
100 66 100 42 61 35 23 58 76 74 26 66 99 99 98 95 100 100 100 100 100 100 100 99 100 100 95 100 98 100 87 95
26 100 32 58 12 8 15 94 100 100 100 100 100 100 100 100 98 98 100 100 100 100 100 100 100 100 100 91 100 100 100 99
91 72 100 77 99 100 98 64 85 89 73 100 100 96 100 100 90 92 100 100 100 100 100 100 100 97 96 99 100 100 100 100
100 100 72 62 35 94 100 100 95 100 100 100 100 100 100 100 100 100 100 100 100 100 100 100 100 100 100 100 100 100 92 100

GFSFLT2_prec_cloud_060.txt.gz
Cloud_Cover
100 100 100 100 100 100 100 100 100 100 100 100 100 100 100 98 100 100 100 98 100 100 100 100 100 100 51 5 5 9 29 5
100 100 100 100 100 100 100 100 100 100 100 100 100 100 100 100 100 100 100 100 100 100 100 100 94 93 100 90 97 99 98 25
100 100 100 100 100 100 100 100 100 100 100 100 100 100 100 100 100 100 100 100 100 97 100 100 100 100 99 96 94 25 98 94
100 100 100 100 100 100 100 100 100 100 100 100 100 100 100 100 100 100 100 100 100 100 100 94 93 46 52 16 96 100 43 80
100 100 100 100 100 100 100 100 100 100 100 100 100 100 100 100 100 100 100 100 100 100 100 99 63 96 50 6 76 99 97 85
100 100 100 100 100 100 100 100 100 100 100 100 100 100 100 100 100 100 100 100 100 100 93 78 11 92 89 71 100 98 93 33
100 100 100 100 100 100 100 100 100 100 100 100 100 100 100 100 100 100 100 100 100 99 100 30 36 23 69 100 99 100 78 100
100 100 100 100 100 100 100 100 100 100 100 100 100 100 100 100 100 100 100 100 100 100 68 16 86 100 100 100 100 100 100 100
100 100 100 100 100 100 100 100 100 100 100 98 100 100 100 100 100 100 100 100 99 100 100 100 100 100 100 100 100 100 100 45
100 100 100 100 100 100 100 100 100 100 100 100 100 100 100 100 100 100 100 100 100 100 100 100 100 100 100 100 100 100 100 100
65 100 100 100 100 100 100 100 100 100 100 100 100 100 100 100 100 100 100 100 100 100 100 100 100 100 100 100 89 100 99 100
87 5 15 99 100 100 100 100 100 100 100 100 100 100 100 100 100 100 100 100 100 100 100 100 100 100 100 100 100 100 100 87
5 5 5 98 100 100 100 100 100 100 100 100 100 100 100 100 100 100 100 100 100 100 100 100 100 100 100 100 100 100 94 5
97 61 5 17 87 7 66 100 100 100 100 100 100 100 100 100 100 100 100 100 100 100 100 100 100 100 100 100 76 92 48 28
34 21 62 12 59 55 99 100 100 100 100 100 100 100 100 100 100 100 100 100 100 100 100 100 100 100 100 100 7 49 31 39
100 100 100 98 99 96 19 91 96 100 100 100 77 100 100 100 100 100 100 100 100 100 100 100 100 100 100 100 100 100 84 100
87 100 100 100 100 100 100 100 100 100 87 85 100 100 100 100 100 100 100 100 100 100 100 100 100 100 100 100 100 100 100 92
91 93 73 96 100 100 99 100 94 46 63 98 100 100 99 100 100 100 100 100 100 100 100 100 100 100 100 100 100 100 100 96
75 58 76 13 32 100 100 60 94 86 79 47 100 93 100 93 98 90 95 98 100 100 100 100 100 100 100 100 100 100 100 100
26 38 6 55 25 33 90 100 96 78 100 91 58 96 100 100 100 100 100 100 100 100 100 100 100 100 100 100 100 100 100 100

GFSFLT2_prec_cloud_063.txt.gz
Cloud_Cover
100 100 100 100 100 100 100 100 84 100 100 100 100 100 100 100 100 100 100 100 100 100 100 100 100 95 91 94 98 6 5 5
100 100 100 100 100 100 100 100 100 100 100 100 100 100 100 100 100 100 100 100 100 100 100 100 100 100 29 85 100 100 8 46
100 100 100 100 100 100 100 100 100 100 100 100 100 100 100 100 100 100 100 100 100 100 100 100 100 95 100 72 48 59 99 50
100 100 100 100 100 100 100 100 100 100 100 100 100 100 100 100 100 100 100 100 100 100 100 100 91 71 96 100 100 41 26 5
100 100 100 100 100 100 100 100 100 100 100 100 100 100 100 100 100 100 100 100 100 100 94 100 54 38 44 79 49 6 5 5
100 100 100 100 100 100 100 100 100 100 100 100 100 100 100 100 100 98 100 100 100 98 96 99 92 87 46 49 97 74 5 6
100 100 100 100 100 100 100 100 100 100 100 100 100 100 100 99 100 100 100 100 81 100 95 38 68 15 10 72 28 72 81 100
100 100 100 100 100 100 100 100 100 100 100 100 100 99 100 100 95 100 100 100 100 100 98 90 57 89 65 100 100 100 100 100
100 100 100 100 100 100 100 100 100 100 100 100 100 88 83 100 95 100 100 100 100 100 72 86 100 100 100 100 99 100 100 100
100 100 100 100 100 100 100 100 100 100 100 100 94 77 83 100 100 98 100 100 100 100 100 100 100 100 100 100 100 100 100 100
100 100 100 100 100 100 100 100 100 100 100 100 100 100 100 100 100 100 100 100 100 100 100 100 100 100 100 100 100 100 94 100
55 100 100 100 100 100 100 100 100 100 100 100 100 100 100 100 100 100 100 100 100 100 100 100 100 100 100 100 100 100 100 100
35 98 100 100 100 100 100 100 100 100 100 100 100 100 100 100 100 100 100 100 100 100 100 100 100 100 100 100 100 100 100 97
44 6 100 100 100 100 100 100 100 100 100 100 100 100 100 100 100 100 100 100 100 100 100 100 100 100 100 100 100 100 100 100
50 92 98 98 88 90 100 100 100 100 100 100 100 100 100 100 100 100 100 100 100 100 100 100 100 100 100 100 100 100 100 100
40 28 4 3 5 44 98 100 7 44 92 100 100 100 100 98 100 100 100 92 100 100 100 100 100 100 100 100 100 100 100 99
100 97 80 100 99 100 100 100 79 44 16 8 5 82 100 100 100 100 100 100 100 100 100 100 100 100 100 100 100 100 100 100
100 100 100 100 100 100 100 100 100 91 80 71 79 58 73 65 65 95 100 100 100 100 100 100 100 100 100 100 100 100 100 100
25 37 41 86 82 97 98 100 100 100 100 15 38 18 60 83 93 100 100 93 77 62 100 100 100 100 100 100 100 100 100 100
5 5 5 5 5 5 5 46 44 5 6 18 83 100 86 100 100 100 100 74 27 37 98 100 100 100 100 100 100 100 100 100

GFSFLT2_prec_cloud_069.txt.gz
Cloud_Cover
100 100 100 100 100 100 100 100 100 100 100 100 100 94 58 85 93 66 41 99 100 100 100 95 96 98 100 92 56 88 51 23
100 100 100 100 100 100 100 100 100 100 100 100 100 100 88 100 100 94 7 82 100 100 56 51 84 5 67 100 100 99 22 6
100 100 100 100 100 100 100 100 100 100 100 100 100 100 99 100 100 100 99 78 15 100 100 93 100 100 100 96 32 8 46 100
100 100 100 100 100 100 100 100 100 100 100 100 100 100 100 100 100 100 96 32 96 100 100 99 40 47 52 93 5 11 93 6
100 100 100 100 100 100 100 100 100 100 100 100 100 100 100 100 100 100 100 74 70 92 94 100 85 94 52 42 5 5 5 5
100 100 100 100 100 100 100 100 100 100 100 100 100 100 100 100 100 96 100 94 100 100 24 100 99 95 56 5 17 5 5 5
100 100 100 100 100 100 100 100 100 100 100 100 100 100 100 100 99 100 91 100 89 36 5 76 98 78 35 43 49 69 5 5
100 100 100 100 100 100 100 100 100 100 100 100 100 100 100 100 100 100 100 100 5 38 22 29 100 96 100 99 18 5 66 45
100 100 100 100 100 100 100 100 100 100 100 100 100 100 100 100 100 100 100 100 98 98 66 66 100 99 88 5 45 98 71 96
100 100 100 100 100 100 100 100 100 100 100 100 100 100 100 100 100 100 100 100 100 85 78 60 100 100 100 99 87 100 100 100
100 100 100 100 100 100 100 100 100 100 100 100 100 100 100 100 100 100 100 100 100 100 100 100 100 100 100 100 100 100 97 100
100 100 100 100 100 100 100 100 100 100 100 100 100 100 100 100 100 100 100 100 100 100 100 100 100 100 100 100 100 100 100 100
100 100 100 100 100 100 100 100 100 100 100 100 100 100 100 100 100 100 100 100 100 100 100 100 100 100 100 100 100 100 100 100
100 100 100 100 100 100 100 100 100 100 100 100 100 100 100 100 100 100 100 100 100 100 100 100 100 100 100 100 100 100 100 100
83 100 100 100 100 100 100 100 100 100 100 100 100 100 100 100 100 100 100 100 100 100 100 100 100 100 100 100 100 100 100 100
45 65 61 61 100 100 100 100 100 100 100 100 100 100 100 100 100 100 100 100 100 100 100 100 100 100 100 100 100 100 100 100
23 50 7 14 93 99 100 100 100 100 100 100 100 100 100 100 100 100 100 100 100 100 100 100 100 100 100 100 99 100 63 100
38 98 12 4 5 5 5 5 13 12 68 60 70 59 100 100 100 100 100 100 100 100 100 100 100 100 88 52 27 99 100 100
24 38 66 100 92 99 76 67 33 5 7 6 5 14 100 100 100 100 100 100 83 98 84 91 92 7 38 35 86 100 83 100
41 6 2 19 100 42 0 0 3 5 5 30 5 5 90 100 100 100 100 100 100 100 100 100 98 67 95 65 100 100 100 100

GFSFLT2_prec_cloud_072.txt.gz
Cloud_Cover
94 98 100 100 100 100 100 100 100 100 100 100 100 100 100 100 100 100 100 100 67 62 61 68 96 34 86 94 100 98 100 24
100 100 100 100 100 100 100 100 100 100 100 100 100 100 100 100 100 100 100 100 59 63 32 100 100 5 81 75 28 6 6 5
100 100 100 100 100 100 100 100 100 100 100 100 100 100 100 100 100 100 100 100 100 57 96 100 100 100 100 94 97 97 50 22
100 100 100 100 100 100 100 100 100 100 100 100 100 100 100 100 100 100 100 100 100 100 100 97 100 89 72 92 100 93 100 95
100 100 100 100 100 100 100 100 100 100 100 100 100 100 100 100 100 100 100 100 100 84 100 100 79 35 47 66 100 94 69 84
100 100 100 100 100 100 100 100 100 100 100 100 100 100 100 100 100 100 100 100 100 97 96 100 99 35 64 97 98 100 97 99
100 100 100 100 100 100 100 100 100 100 100 100 100 100 100 100 100 100 100 100 100 100 100 99 91 88 75 23 89 99 99 100
100 100 100 100 100 100 100 100 100 100 100 100 100 100 100 100 100 100 100 100 100 100 86 77 92 55 68 74 60 72 99 100
100 100 100 100 100 100 100 100 100 100 100 100 100 100 100 100 100 100 100 100 100 100 100 100 99 86 100 98 81 97 100 100
100 100 100 100 100 100 100 100 100 100 100 100 100 100 100 100 100 100 100 100 100 100 100 100 100 96 85 72 87 94 100 85
100 100 100 100 100 100 100 100 100 100 100 100 100 100 100 100 100 100 100 100 100 100 100 98 100 99 100 100 100 100 99 95
100 100 100 100 100 100 100 100 100 100 100 100 100 100 100 100 100 100 100 100 100 100 100 100 100 100 100 100 100 100 100 100
100 100 100 100 100 100 100 100 100 100 100 100 100 100 100 100 100 100 100 100 100 100 100 100 100 100 100 100 100 100 100 100
98 100 100 100 100 100 100 100 100 100 100 100 100 100 100 100 100 100 100 100 100 99 100 100 100 100 100 100 100 100 100 100
62 100 100 100 100 100 100 100 100 100 100 100 100 100 100 100 100 100 100 100 100 100 100 100 100 100 100 100 100 100 100 100
100 100 90 90 100 100 100 100 100 100 100 100 100 100 100 100 100 100 100 100 100 100 100 100 100 100 100 100 100 100 100 100
73 90 53 27 94 100 100 100 100 100 100 100 100 100 100 100 100 100 100 100 100 100 100 100 100 100 100 100 100 100 100 100
95 34 74 82 60 99 100 100 100 100 100 99 100 100 100 100 100 100 100 100 100 100 100 100 100 100 100 100 100 95 100 89
100 79 25 37 5 41 65 100 100 100 100 100 100 100 100 100 100 100 100 100 100 100 55 96 58 90 100 87 66 96 100 100
76 79 13 76 100 91 87 100 99 100 100 100 100 100 100 100 100 100 100 100 98 21 36 30 76 97 100 100 100 100 100 98

GFSFLT2_prec_cloud_075.txt.gz
Cloud_Cover
98 100 100 100 100 100 100 100 100 100 100 100 100 100 100 100 100 100 100 100 95 100 87 41 92 37 5 6 100 99 5 76
100 100 100 100 100 100 100 100 100 100 100 100 100 100 100 100 100 100 100 99 5 5 98 43 7 90 71 6 28 100 71 98
100 100 100 100 100 100 100 100 100 94 100 100 100 100 100 100 100 100 100 100 5 5 41 53 84 72 90 65 87 96 92 19
100 100 100 100 100 100 91 98 100 100 100 100 100 100 100 100 100 96 100 59 61 64 97 67 97 78 95 85 55 57 94 100
100 100 100 100 100 100 99 100 100 100 100 100 100 100 100 100 100 100 38 6 67 62 89 69 18 87 100 89 54 50 91 97
100 100 100 100 100 100 100 100 100 100 100 100 100 100 100 100 100 100 100 93 97 49 70 96 90 100 96 100 99 92 40 100
100 100 100 100 100 100 100 100 100 100 100 100 100 100 100 100 100 100 100 100 66 74 93 70 100 79 92 84 100 97 90 74
100 100 100 100 100 100 100 100 100 100 100 100 100 100 100 100 100 100 100 100 98 100 100 78 98 98 100 99 88 85 68 89
100 100 100 97 100 100 100 100 100 100 100 100 100 100 100 100 100 100 100 100 99 100 97 79 82 78 100 100 96 100 100 100
100 100 100 100 100 100 100 100 100 100 100 100 100 100 100 100 100 100 100 100 100 100 100 100 100 100 95 98 99 100 100 98
100 100 100 100 100 100 100 100 100 100 100 100 100 100 100 100 100 100 100 100 100 100 100 100 100 100 100 93 100 100 100 100
100 100 100 100 100 100 100 100 100 100 100 100 100 100 100 100 100 100 100 100 100 100 100 100 100 100 100 100 88 100 100 100
100 100 100 100 100 100 100 100 100 100 100 100 100 100 100 100 100 100 100 100 100 100 100 100 100 100 100 100 100 100 100 100
100 100 100 100 100 100 100 100 100 100 100 100 100 100 100 100 100 100 100 100 100 100 100 100 100 100 100 100 100 100 100 100
100 100 100 100 100 100 100 100 100 100 100 100 100 100 100 100 100 100 100 100 100 100 100 100 100 100 100 100 100 100 100 100
80 100 100 100 100 100 94 100 100 100 100 100 100 100 100 100 100 100 100 100 100 100 100 100 100 100 100 100 100 100 100 100
100 89 100 100 100 98 100 100 100 100 100 100 100 100 100 100 100 100 100 100 100 100 100 100 100 100 100 100 100 100 100 100
100 98 95 69 100 98 97 100 100 100 100 100 100 100 100 100 100 100 100 100 100 100 100 100 100 100 100 100 100 100 100 96
100 76 65 90 100 100 100 100 100 100 100 100 100 100 100 100 100 100 100 100 100 100 100 100 100 100 100 99 100 100 100 100
100 100 52 61 45 100 100 100 100 100 100 100 100 100 100 100 100 100 100 100 100 100 100 100 100 100 100 84 98 94 100 100

GFSFLT2_prec_cloud_078.txt.gz
Cloud_Cover
100 100 100 100 100 100 82 100 97 100 100 100 100 100 100 100 100 100 100 43 95 100 100 100 90 83 26 100 100 99 73 55
100 100 100 100 100 100 100 74 100 100 100 100 100 100 100 100 100 100 100 100 100 100 95 98 78 12 84 44 92 50 79 95
100 100 100 100 100 100 100 100 71 100 100 100 100 100 100 100 100 93 100 100 100 100 74 100 98 97 51 56 97 92 77 100
100 100 100 100 100 100 86 100 100 100 100 100 100 100 100 100 100 100 100 100 100 100 100 81 63 36 60 64 69 97 71 18
100 100 100 100 100 100 100 100 100 100 100 100 100 100 100 100 100 100 100 100 100 100 100 51 20 9 40 78 100 97 23 68
100 100 100 100 100 100 100 100 100 100 100 100 100 100 100 100 100 100 100 100 100 96 35 49 63 6 13 58 47 56 98 72
100 100 100 100 100 100 100 100 100 100 100 100 100 100 100 100 100 100 100 100 100 81 98 98 94 50 40 83 32 48 99 100
99 100 100 100 100 100 100 100 100 100 100 100 100 100 100 100 100 100 100 100 100 92 100 50 100 82 70 62 8 27 95 83
66 100 100 100 100 100 100 100 100 100 100 100 100 100 100 100 100 100 100 100 100 100 71 96 95 99 93 100 38 100 100 23
48 81 100 100 100 100 100 100 100 100 100 100 100 100 100 100 100 100 100 100 100 100 100 100 100 100 100 100 100 36 14 70
62 100 100 100 100 100 100 100 100 100 100 100 100 100 100 100 100 100 100 100 100 100 100 100 100 100 100 100 95 46 7 56
95 100 100 100 100 100 100 100 100 100 100 100 100 100 100 100 100 100 100 100 100 100 100 100 100 100 100 100 82 100 95 78
78 100 100 100 100 100 100 100 100 100 100 100 100 100 100 100 100 100 100 100 100 100 100 100 100 99 100 100 100 100 100 100
87 100 100 100 100 100 100 100 100 100 100 100 100 100 100 100 100 100 100 100 90 100 92 80 95 98 100 100 100 100 100 100
100 100 100 100 100 100 100 100 100 100 100 100 100 100 100 100 100 100 100 100 100 100 100 100 100 100 100 100 100 100 100 100
100 100 100 100 100 100 100 100 100 100 100 100 100 100 100 100 100 100 100 100 100 100 100 100 100 100 100 100 100 100 100 100
99 98 94 100 100 100 100 100 100 100 100 100 100 100 100 100 100 100 100 100 100 100 100 100 100 100 100 100 100 100 100 100
96 100 100 100 100 100 86 92 100 100 100 100 100 100 100 100 100 100 100 100 100 100 100 100 100 100 100 100 100 100 100 100
30 95 100 99 100 100 100 96 40 100 100 100 100 100 100 100 100 100 100 100 100 100 100 100 100 100 100 100 100 100 100 100
6 2 29 93 100 100 100 100 100 100 100 99 100 100 100 100 100 100 100 100 100 100 100 100 99 100 100 100 100 100 100 100

GFSFLT2_prec_cloud_081.txt.gz
Cloud_Cover
100 79 97 99 100 100 100 100 100 100 100 100 100 100 100 100 100 100 90 98 89 95 96 63 72 96 92 59 9 5 2 8
99 68 100 100 100 100 100 100 100 100 100 100 100 100 100 100 100 100 100 89 100 100 82 100 100 100 16 93 14 84 100 88
95 96 100 100 100 100 100 100 100 100 100 100 100 100 100 100 100 100 100 76 100 100 100 100 100 100 99 68 84 57 35 47
88 82 100 100 100 96 78 100 100 100 100 100 100 100 100 100 100 98 100 100 100 100 100 100 100 100 100 91 79 58 84 68
100 100 100 100 100 100 100 100 100 100 100 100 100 100 100 100 100 100 99 52 100 100 100 100 100 100 57 17 6 46 96 59
76 65 100 100 100 89 94 94 100 100 100 100 100 100 100 100 100 100 100 100 100 100 100 100 100 55 33 12 5 28 95 88
82 80 81 100 100 100 94 100 100 100 100 100 100 100 100 100 100 100 100 100 100 100 100 100 100 100 33 75 28 60 100 96
100 98 100 98 100 97 68 100 100 100 100 100 100 100 100 100 100 100 100 100 100 100 100 92 98 65 100 98 95 31 51 61
88 77 100 75 93 100 100 100 100 100 100 100 100 100 100 100 100 100 100 100 99 100 99 100 100 59 100 100 86 85 100 99
86 100 67 100 100 100 100 100 100 100 100 100 100 100 100 100 100 100 100 100 100 100 100 100 100 100 100 82 100 100 88 65
97 85 79 91 100 97 100 100 100 100 100 100 100 100 100 100 100 100 100 100 100 100 100 100 100 100 99 92 100 100 92 100
99 56 44 66 100 100 100 100 100 100 100 100 100 100 100 100 100 100 100 100 100 100 100 100 100 100 100 100 100 100 98 100
100 68 99 100 100 100 100 100 100 100 100 100 100 100 100 100 100 100 100 100 100 100 100 100 100 100 100 100 100 100 100 100
98 95 99 100 100 100 100 100 100 100 100 100 100 100 100 100 100 100 100 100 100 100 100 100 100 100 100 100 100 100 100 100
89 90 100 100 100 100 100 100 100 100 100 100 100 100 100 100 100 100 100 100 100 100 100 100 100 100 100 100 100 100 100 100
52 63 100 100 100 100 100 100 100 100 100 100 100 100 100 100 100 100 100 100 100 100 100 100 100 100 100 100 100 100 100 100
73 97 100 100 100 100 91 100 100 100 100 100 100 100 100 100 100 100 100 100 100 100 100 100 100 100 100 100 100 100 100 100
5 83 75 100 97 100 38 99 100 100 100 100 100 100 100 100 100 100 100 100 100 100 100 100 100 100 100 100 100 100 100 100
0 20 100 100 88 100 100 100 100 100 100 100 100 100 100 100 100 100 100 100 100 100 100 100 100 100 100 100 100 100 100 100
0 0 38 99 85 98 100 100 100 67 100 100 100 100 100 100 100 100 100 100 100 100 100 100 100 100 100 100 100 100 100 100

GFSFLT2_prec_cloud_084.txt.gz
Cloud_Cover
98 29 5 84 97 98 100 100 100 100 100 100 100 100 100 100 100 100 100 100 100 100 100 100 100 51 100 30 99 100 89 5
100 82 45 92 67 100 100 100 100 100 100 100 100 100 100 100 100 100 100 100 100 100 100 100 100 75 99 100 100 99 18 98
74 100 8 96 100 100 75 100 100 100 100 100 100 100 100 100 100 100 100 100 100 100 99 100 100 100 100 100 100 81 90 65
100 47 78 97 100 100 100 100 100 100 100 100 100 100 100 100 100 99 100 100 99 94 100 100 100 100 100 100 100 100 81 11
94 93 34 100 100 100 100 100 100 100 100 100 100 100 100 100 100 98 95 100 96 90 99 100 100 100 100 100 100 100 90 63
100 52 90 49 100 99 99 100 100 100 100 100 100 100 100 100 100 100 100 88 100 98 100 100 100 100 100 100 100 100 100 40
37 90 53 50 5 87 100 100 100 100 100 100 100 100 100 100 100 100 100 100 100 91 100 100 100 100 100 100 100 87 83 72
7 51 97 64 59 65 69 100 100 100 100 100 100 100 100 100 100 100 100 100 100 100 100 100 100 100 100 100 100 100 97 100
8 0 100 100 58 100 96 92 92 99 100 100 100 100 100 100 100 100 100 100 100 100 100 100 100 100 100 100 100 100 100 100
0 0 99 100 100 53 95 100 100 96 100 100 100 100 100 100 100 100 100 100 84 100 100 100 100 100 100 69 100 100 100 91
0 0 99 82 100 99 100 100 100 100 100 100 100 100 100 100 100 100 100 100 100 100 100 100 100 100 100 100 100 100 100 74
0 0 60 95 88 100 100 100 100 100 100 100 100 100 100 100 100 100 100 100 100 100 100 100 100 100 100 100 100 100 98 94
0 1 68 42 100 100 100 100 100 100 100 100 100 100 100 100 100 100 100 100 100 100 100 100 100 100 100 100 100 100 100 100
0 7 82 100 95 98 99 100 100 100 100 100 100 100 100 100 100 100 100 100 100 95 100 100 100 100 100 100 100 100 100 100
0 89 56 68 100 99 100 100 100 100 100 100 100 100 100 100 100 100 100 100 100 100 100 100 100 100 100 100 100 100 100 100
0 100 82 81 100 100 100 100 100 100 100 100 100 100 100 100 100 100 100 100 100 100 100 100 100 100 100 100 100 100 100 100
0 100 86 100 100 91 100 100 100 100 100 100 100 100 100 100 100 100 100 100 100 100 100 100 100 100 100 100 100 100 100 100
0 100 100 100 80 100 85 100 100 100 100 100 100 100 100 100 100 100 100 100 100 100 100 100 100 100 100 100 100 100 100 100
1 100 100 100 100 100 98 94 100 88 100 100 100 100 100 100 100 100 100 100 100 100 100 100 100 100 100 100 100 100 100 100
8 30 100 100 100 100 100 97 100 44 87 100 100 100 100 100 100 100 100 100 100 100 100 100 100 100 100 100 100 100 100 100

GFSFLT2_prec_cloud_087.txt.gz
Cloud_Cover
31 100 15 0 0 1 97 79 100 100 89 100 100 100 100 100 100 100 100 98 100 100 87 81 100 100 92 100 100 100 95 56
55 60 100 53 0 13 95 100 100 100 100 100 100 100 100 100 100 100 100 100 100 100 95 99 73 100 100 100 100 100 100 100
86 100 100 12 17 84 100 100 100 100 100 100 100 100 100 100 100 100 100 100 100 100 100 98 100 100 96 100 100 100 100 100
82 100 100 15 24 87 100 100 100 100 100 100 100 100 100 100 100 98 98 100 100 96 95 100 98 100 100 100 100 100 100 96
91 54 82 100 22 96 99 100 100 100 100 100 100 100 100 100 100 100 98 100 73 83 78 97 100 49 100 100 100 100 100 100
0 52 100 100 92 85 100 100 100 100 100 100 100 100 100 100 100 100 100 100 98 99 66 79 31 66 100 100 100 100 100 100
0 2 54 54 74 89 100 100 100 100 100 100 100 100 100 100 100 100 100 100 83 90 70 93 94 100 100 100 100 100 100 100
0 0 5 70 50 1 85 100 100 100 100 100 100 100 100 100 100 100 100 100 90 100 100 100 87 100 99 100 100 100 100 100
0 0 0 54 100 95 63 32 100 100 100 100 100 100 100 100 100 100 100 100 93 79 99 61 100 100 99 100 100 100 100 100
0 0 0 26 46 82 56 27 98 100 100 100 100 100 100 100 100 100 100 100 100 90 90 96 100 100 100 100 100 100 100 100
20 0 0 2 100 99 89 80 92 100 97 100 100 100 100 100 100 100 100 100 100 100 98 100 100 100 100 100 100 100 100 100
0 0 0 42 100 100 100 100 100 100 93 100 100 100 100 100 100 100 100 100 100 100 100 99 100 100 100 100 100 100 100 100
0 0 35 87 100 100 100 100 100 100 100 100 100 100 100 100 100 100 100 100 100 100 100 100 100 100 100 100 100 100 100 100
0 0 15 80 100 100 100 100 100 100 100 100 100 100 100 100 100 100 100 100 100 100 100 97 100 100 100 100 100 99 100 100
0 0 0 85 100 100 100 100 100 100 100 100 100 100 100 100 100 100 100 100 100 100 100 99 100 99 100 100 100 100 100 100
0 0 0 93 100 100 100 100 100 100 100 100 100 100 100 100 100 100 100 100 100 100 100 100 100 100 100 100 100 100 100 100
0 0 0 45 100 100 99 66 100 100 100 100 100 100 100 100 100 100 100 100 100 100 100 100 100 100 100 100 100 100 100 100
0 35 0 100 100 100 100 100 96 94 96 100 100 100 100 100 100 100 100 100 100 100 100 100 100 100 100 100 100 100 100 100
1 3 15 100 100 100 100 98 72 1 91 100 100 100 100 100 100 100 100 100 100 100 100 100 100 100 100 100 100 100 100 100
5 2 0 100 100 100 100 100 98 100 100 80 100 100 100 100 100 100 100 100 100 100 100 100 100 100 100 100 100 100 100 100

GFSFLT2_prec_cloud_090.txt.gz
Cloud_Cover
71 97 60 0 5 46 65 59 29 100 100 100 100 100 100 100 100 100 100 97 93 100 98 100 96 98 100 14 100 100 100 100
34 8 99 78 47 55 31 12 18 100 100 100 100 100 100 100 100 100 100 99 56 98 100 47 5 88 100 100 100 100 99 100
56 24 21 98 95 13 0 0 95 100 100 100 100 100 100 100 100 100 100 89 99 10 21 76 11 40 100 100 91 100 100 98
15 34 8 96 51 86 17 4 100 100 100 100 100 100 100 100 100 100 100 100 87 64 6 50 87 100 100 100 98 100 100 100
8 27 16 98 47 33 31 33 100 100 100 100 100 100 100 100 100 100 100 100 74 62 90 36 96 100 100 83 98 100 100 100
9 20 32 88 93 20 26 32 100 100 100 100 100 100 100 100 100 100 100 100 93 67 82 78 100 100 98 74 91 100 100 100
10 19 3 23 100 100 47 30 100 100 100 100 100 100 100 100 100 100 100 91 63 91 15 29 70 100 100 49 98 100 100 100
6 11 2 12 10 68 100 43 100 100 100 100 100 100 100 100 100 100 100 93 100 100 66 98 76 80 100 77 94 100 100 100
12 8 4 1 0 23 35 40 100 100 100 100 100 100 100 100 100 100 100 100 100 99 77 75 52 100 100 100 98 100 100 100
0 1 11 1 0 42 100 35 84 100 100 100 100 100 100 100 100 100 100 100 100 99 87 76 99 100 100 65 100 100 100 100
11 18 19 19 27 22 79 100 88 99 100 100 100 100 100 100 100 100 100 100 100 100 70 100 97 100 100 100 100 97 100 100
29 26 26 89 99 77 83 100 96 46 79 100 100 100 100 100 100 100 100 100 100 100 100 100 99 100 100 100 100 100 100 100
47 40 97 100 100 100 100 100 100 100 96 73 100 100 100 100 100 100 100 100 100 100 100 100 100 90 100 100 100 100 100 100
40 43 100 100 57 60 88 97 100 100 85 88 100 100 100 100 100 100 100 100 100 100 100 100 100 96 100 100 100 100 100 100
39 94 100 98 4 98 99 100 100 100 100 100 100 100 100 100 100 100 100 100 100 100 100 100 100 100 100 100 100 100 100 100
36 77 87 90 17 100 100 100 100 100 100 100 100 100 100 100 100 100 100 100 100 100 100 100 100 100 100 100 100 100 100 100
44 60 65 90 15 100 100 100 79 100 100 100 100 100 100 100 100 100 100 100 100 100 100 100 100 100 100 100 100 100 100 100
50 50 40 71 31 100 100 100 81 64 100 100 100 100 100 100 100 100 100 100 100 100 100 100 100 100 100 100 100 100 100 100
52 47 77 70 44 100 100 100 31 100 94 94 100 100 100 100 100 100 100 100 100 100 100 100 100 100 100 100 100 100 100 100
93 41 66 90 78 80 100 100 95 77 94 97 99 100 100 100 100 100 100 100 100 100 100 100 100 100 81 100 73 87 97 100

GFSFLT2_prec_cloud_093.txt.gz
Cloud_Cover
2 0 0 42 35 15 32 100 92 0 17 99 100 100 100 100 100 100 100 100 87 100 100 100 100 100 64 89 100 100 100 100
21 18 14 27 22 44 82 90 100 46 48 100 100 100 100 100 100 100 100 100 100 93 99 100 100 100 99 99 88 100 100 100
24 27 22 26 68 72 98 100 100 66 46 80 94 100 100 100 96 100 100 100 100 59 94 100 87 22 36 47 34 100 100 100
100 35 27 26 32 100 100 100 97 100 100 100 81 100 100 100 100 100 100 100 100 100 100 100 98 60 20 79 100 82 99 100
98 54 22 19 25 100 100 100 39 36 100 100 100 100 100 100 100 100 100 100 100 100 100 98 99 100 87 100 26 100 100 100
24 71 57 32 71 65 82 80 87 97 100 100 100 100 100 100 100 100 100 100 100 100 86 96 87 97 96 80 77 100 100 100
13 46 48 61 100 93 38 48 100 100 100 100 100 100 100 100 100 100 100 100 100 100 100 90 100 100 100 100 100 100 93 100
11 25 31 32 40 79 97 66 99 100 100 100 100 100 100 100 100 100 100 100 100 100 71 100 100 98 99 100 100 95 77 99
20 40 25 23 20 12 100 100 98 100 100 100 100 100 100 100 100 100 100 100 100 100 100 100 100 54 100 65 100 95 100 97
20 51 39 29 23 23 27 100 92 100 100 100 100 100 100 100 100 100 100 100 100 100 54 100 100 100 98 98 97 100 100 100
41 43 38 31 24 34 33 33 86 96 100 100 100 100 100 100 100 100 100 100 100 100 99 100 100 100 100 98 99 97 84 100
23 57 51 41 91 81 64 50 44 100 95 100 100 100 100 100 100 100 100 100 100 100 100 100 100 100 100 100 100 99 83 100
66 100 100 100 100 100 100 100 73 75 100 70 100 100 100 100 100 100 100 100 100 100 92 100 100 100 100 100 89 100 100 99
100 100 100 100 100 100 98 100 64 98 53 68 82 100 100 100 100 100 100 100 100 100 100 100 100 100 100 100 97 100 100 100
100 100 100 100 99 80 92 92 94 93 70 100 59 92 100 100 100 100 100 100 100 100 100 100 100 100 100 100 100 100 100 100
89 100 100 100 44 39 78 61 100 92 68 100 100 100 98 100 100 100 100 100 100 100 100 100 100 100 100 100 100 100 100 100
91 100 100 100 49 10 25 44 69 35 88 100 100 100 100 100 100 100 100 100 100 100 100 100 100 100 100 100 100 100 100 100
100 100 100 100 39 9 1 29 99 80 88 100 100 100 100 100 100 100 100 100 100 100 100 100 100 100 100 100 100 100 100 100
100 100 100 100 65 24 0 29 88 64 58 100 100 100 100 100 100 100 100 100 100 100 100 100 100 100 100 100 100 100 100 100
100 100 100 100 97 28 4 93 49 47 11 95 100 100 100 100 100 100 100 100 100 100 100 100 100 100 100 100 100 100 100 100

GFSFLT2_prec_cloud_096.txt.gz
Cloud_Cover
10 5 37 47 13 1 15 50 20 0 3 5 30 18 79 100 100 100 100 100 100 100 100 99 21 100 100 61 89 100 85 87
19 17 19 40 49 66 48 100 99 20 23 23 5 63 85 93 100 100 100 100 100 100 100 100 100 100 99 100 100 100 100 100
24 30 29 25 27 91 99 100 100 95 75 51 21 23 98 100 100 100 100 100 100 100 100 78 92 61 68 100 100 100 99 83
60 31 35 41 47 99 85 100 100 97 57 100 100 87 89 96 97 100 100 100 100 100 100 17 94 42 58 97 99 77 82 8
100 70 33 38 68 81 100 99 100 100 100 100 100 100 100 100 100 100 100 100 100 100 100 83 98 100 100 100 100 89 75 100
100 98 41 28 36 52 73 100 100 100 100 100 100 96 100 100 100 100 100 100 100 100 100 100 79 59 98 100 100 100 100 98
60 100 95 45 30 28 74 100 100 90 75 71 100 100 100 100 100 100 100 100 100 100 100 90 98 84 71 99 95 96 92 96
10 100 100 100 74 30 31 62 100 99 86 99 100 100 100 100 100 100 100 100 100 100 100 100 100 59 95 92 79 59 100 100
8 56 99 99 59 45 53 63 100 100 100 100 100 100 100 100 100 100 100 100 100 100 100 100 100 99 62 100 99 100 95 100
0 25 86 74 45 40 46 87 97 98 99 100 100 100 100 100 100 100 100 100 100 100 100 100 100 100 85 98 100 88 100 98
5 65 100 82 34 31 28 38 100 100 100 98 100 100 100 100 100 100 100 100 100 100 100 100 100 100 97 48 99 100 89 99
6 94 100 63 68 81 72 77 89 100 100 100 100 100 100 100 100 100 100 100 100 100 100 100 100 100 68 100 100 100 100 88
34 99 100 98 100 100 100 100 100 81 100 100 91 100 100 100 100 100 100 100 100 100 100 100 100 100 100 83 91 91 69 100
39 92 100 100 100 100 100 100 100 77 40 51 100 100 100 100 100 100 100 100 100 100 100 100 100 100 100 100 100 100 97 100
49 88 99 100 100 100 100 100 100 90 82 56 72 78 100 100 100 100 100 100 100 100 100 100 100 100 100 98 100 100 100 100
79 95 99 100 100 100 100 100 93 100 59 23 50 13 96 100 100 100 100 100 100 100 100 100 100 100 100 100 100 100 100 100
96 100 100 100 100 100 100 40 3 38 13 62 100 78 14 100 100 100 100 100 100 100 100 100 100 100 100 100 100 100 100 100
100 100 100 100 100 80 13 15 98 96 69 100 100 100 100 97 100 100 100 100 100 100 100 100 100 100 100 100 100 100 100 100
100 100 100 100 100 57 8 0 4 72 84 98 100 100 100 100 97 100 100 100 100 100 100 100 100 100 100 100 100 100 100 100
100 100 100 100 100 62 54 1 0 57 76 63 100 100 100 100 100 100 100 100 100 100 100 100 100 100 100 100 100 100 100 100

GFSFLT2_prec_cloud_099.txt.gz
Cloud_Cover
34 40 20 20 0 0 0 0 0 0 0 0 28 0 22 94 89 99 100 100 100 100 100 100 100 100 100 100 8 94 11 46
1 44 68 58 48 12 5 0 1 0 0 1 5 4 34 100 100 96 100 100 100 100 100 100 100 100 5 100 36 52 100 24
18 22 41 56 56 82 79 99 100 56 2 3 7 1 0 57 47 100 100 100 100 100 100 100 100 100 100 89 82 32 100 82
44 41 55 50 54 100 100 99 100 100 82 39 34 60 77 82 85 100 100 100 100 100 100 100 100 76 80 41 98 94 94 100
87 83 56 38 69 100 100 100 92 100 100 100 98 100 100 100 99 100 100 100 100 100 100 100 100 97 74 100 83 86 100 93
100 90 61 47 44 100 100 100 100 100 100 100 100 100 100 100 98 100 100 100 100 100 100 94 100 98 72 100 93 57 78 86
90 100 74 37 35 41 82 98 98 99 100 100 100 100 100 98 100 96 100 100 100 100 100 100 100 100 100 84 99 100 44 73
44 100 100 59 32 39 32 55 100 100 100 100 100 99 94 100 100 100 100 100 100 100 100 100 100 100 74 94 100 100 70 70
5 100 100 100 98 35 38 44 97 100 94 100 100 100 77 100 100 100 100 100 100 100 100 100 100 51 84 98 40 72 72 69
0 51 100 100 100 66 63 98 100 99 98 54 85 96 87 100 100 100 100 100 100 100 100 100 100 100 100 100 86 90 100 99
0 6 100 100 97 68 66 100 100 100 97 100 100 99 83 100 100 100 100 100 100 100 100 100 100 100 100 98 95 74 91 48
2 4 93 100 99 83 90 100 100 100 99 99 100 100 100 100 100 100 100 100 100 100 100 100 100 100 100 94 92 100 97 94
0 6 100 100 100 100 100 100 100 100 100 100 100 100 100 100 100 100 100 100 100 100 100 100 100 100 100 100 100 99 100 100
0 0 100 98 100 100 100 94 100 87 100 100 84 100 100 100 100 100 100 100 100 100 100 100 100 100 100 97 100 100 100 100
0 0 68 90 100 100 100 100 100 100 100 100 100 100 100 100 100 100 100 100 100 100 100 100 100 100 100 100 100 100 100 100
0 4 56 73 100 100 100 34 99 100 100 70 30 50 87 100 100 100 100 100 100 100 100 100 100 100 98 100 100 100 100 100
19 35 81 100 100 99 100 100 100 74 80 36 25 36 21 76 100 100 100 100 100 100 100 100 100 100 100 100 100 100 100 100
47 79 94 100 100 97 100 100 25 24 53 32 38 89 100 57 92 100 100 100 100 100 100 100 100 100 100 100 100 100 100 100
97 100 100 100 100 100 100 58 8 25 50 15 20 64 82 78 100 100 100 100 100 100 100 100 100 100 100 100 100 100 100 100
100 100 100 100 100 100 100 51 4 7 17 23 43 100 100 100 100 100 100 98 100 100 100 100 100 100 100 100 100 100 100 100

GFSFLT2_prec_cloud_102.txt.gz
Cloud_Cover
0 13 43 42 0 0 0 0 0 0 0 0 3 0 6 35 8 100 100 100 100 100 100 100 100 100 100 100 100 10 63 88
0 3 26 62 70 11 0 0 0 0 0 0 3 6 46 42 3 93 100 78 100 100 100 100 100 100 100 100 100 100 100 95
0 0 38 73 100 85 53 17 0 6 3 1 63 3 24 61 67 2 100 100 100 100 100 100 100 100 100 100 100 77 100 78
0 0 0 73 100 83 45 86 33 100 74 12 2 20 40 14 11 2 26 100 100 100 100 100 100 100 100 100 50 100 93 100
1 4 0 1 1 100 89 95 83 56 75 58 57 38 46 96 47 27 38 72 100 100 100 100 100 100 99 100 76 79 93 99
3 2 2 12 1 35 65 52 100 94 74 100 72 88 93 59 100 36 37 100 100 100 100 100 100 100 100 100 81 92 99 100
13 14 0 0 5 7 82 100 100 100 77 56 94 97 99 40 100 100 100 100 100 100 100 100 100 100 100 90 100 100 100 98
5 6 6 0 0 16 0 2 100 100 99 91 99 99 100 100 100 99 99 96 100 100 100 100 100 100 100 98 100 88 100 100
0 14 11 0 0 17 1 0 58 100 100 100 100 100 100 76 75 86 74 89 100 100 100 100 100 100 100 100 100 100 100 100
5 9 1 24 1 11 0 0 80 58 51 98 100 100 72 86 60 27 100 100 100 100 100 100 100 100 100 100 99 100 100 100
5 5 4 93 73 6 10 51 100 83 72 78 97 69 84 94 94 100 100 100 100 100 100 100 100 100 100 100 100 92 74 100
1 0 22 96 100 29 22 100 100 100 100 84 45 50 98 72 100 100 100 100 100 100 100 100 100 100 100 100 100 100 100 100
5 2 5 100 100 75 93 100 100 100 75 100 88 69 36 55 100 100 100 100 100 100 100 100 100 100 100 100 100 100 100 100
14 0 0 16 0 0 5 84 100 97 100 99 73 68 59 52 100 100 100 100 100 100 100 100 100 100 100 100 100 100 100 100
5 0 0 23 0 0 35 79 81 100 100 87 100 96 90 88 100 100 100 100 100 100 100 100 100 100 100 100 100 100 100 100
4 0 2 7 5 0 8 5 20 18 94 75 100 66 88 100 100 100 100 100 100 100 100 100 100 100 100 100 100 100 100 100
1 0 5 3 18 1 0 4 5 26 51 100 100 98 81 99 98 100 100 100 100 100 100 100 100 100 100 100 100 100 100 100
0 0 5 3 40 25 2 5 3 15 21 18 78 100 98 100 97 100 100 100 100 100 100 100 100 100 100 100 100 100 100 100
0 0 0 27 100 47 45 5 5 5 7 0 18 100 100 94 81 96 100 100 100 100 100 100 100 100 100 100 100 100 100 100
0 0 0 100 100 85 63 8 15 14 51 0 14 58 99 68 56 55 100 100 100 100 100 100 100 99 100 100 100 100 100 100

GFSFLT2_prec_cloud_105.txt.gz
Cloud_Cover
0 9 3 40 0 0 0 0 0 2 39 0 0 1 1 11 6 4 6 96 100 100 100 100 100 100 100 43 100 100 100 100
0 2 16 21 4 7 0 0 0 0 0 0 0 2 0 11 76 47 0 41 96 100 100 100 100 100 100 100 100 100 100 58
4 0 2 1 100 19 53 26 1 9 3 2 67 0 0 0 22 14 0 12 100 100 95 100 100 100 100 100 100 70 100 100
0 0 0 1 100 75 38 94 19 19 6 0 0 7 9 4 3 0 32 22 34 100 100 100 100 100 100 100 100 100 74 100
0 5 5 16 8 38 10 18 93 100 45 43 6 7 6 26 5 4 12 0 4 96 100 100 100 100 100 100 100 100 100 100
5 5 5 2 1 16 66 32 33 34 80 48 21 13 6 5 44 20 22 0 44 40 100 100 100 100 100 100 97 100 100 100
5 5 5 1 0 10 1 11 58 20 81 90 38 60 69 31 29 32 46 31 37 49 100 100 100 100 100 100 100 100 100 58
5 4 0 0 0 6 2 23 77 45 35 99 60 45 48 74 35 82 86 87 22 88 100 100 100 100 100 100 100 100 100 100
5 0 6 4 3 5 4 8 18 35 97 95 100 76 55 97 74 66 100 41 29 100 97 100 100 100 100 100 100 100 100 100
1 5 6 2 5 5 4 0 11 31 100 100 68 65 77 62 98 71 92 18 56 89 100 100 100 100 100 100 100 100 100 100
5 16 8 11 5 4 0 2 2 5 84 90 90 53 44 82 34 63 100 100 92 100 100 100 100 100 100 100 100 100 100 100
51 74 9 22 14 0 0 20 39 1 8 61 100 56 18 99 98 97 92 91 100 100 91 100 100 100 100 100 100 100 100 100
43 5 62 19 62 0 1 31 47 100 89 78 38 50 72 98 73 97 94 100 100 100 100 100 100 100 100 100 100 100 100 100
92 34 5 8 60 36 4 17 94 18 38 83 20 17 16 96 98 94 100 100 100 100 100 100 100 100 100 100 100 100 100 100
100 100 100 96 36 2 10 47 93 64 87 83 46 12 69 100 97 89 100 100 100 100 100 100 100 100 100 100 100 100 100 100
8 5 5 5 6 0 4 0 24 12 49 98 78 90 96 74 83 32 100 100 100 100 100 100 100 100 100 100 100 100 100 100
25 5 5 5 1 1 2 6 7 1 12 52 94 88 100 100 48 87 82 100 100 100 100 100 100 100 100 100 100 100 100 100
13 3 5 2 5 5 0 19 0 0 0 42 85 10 100 100 91 98 75 100 100 100 100 100 100 100 100 100 100 100 100 100
4 13 5 2 0 5 15 21 7 0 0 5 18 67 100 100 47 78 95 100 100 100 100 100 100 100 100 100 100 100 100 100
5 34 5 1 0 1 36 38 26 6 0 5 5 32 94 87 51 81 99 100 100 100 100 100 100 100 100 100 100 100 100 100

GFSFLT2_prec_cloud_108.txt.gz
Cloud_Cover
21 0 0 0 0 0 0 0 0 83 100 50 0 0 0 0 5 10 45 5 27 100 100 100 100 100 100 100 18 14 58 53
68 5 5 5 0 7 0 0 0 0 6 0 0 0 0 0 0 2 0 0 1 91 100 100 100 100 100 100 95 14 99 78
34 9 0 5 0 0 43 4 1 8 1 2 67 0 0 0 0 0 0 1 0 5 43 100 100 100 100 100 100 27 99 95
9 53 5 1 0 0 0 0 0 0 0 0 0 0 0 3 24 0 4 1 2 70 23 28 100 100 100 100 100 95 100 100
20 12 5 3 2 0 0 0 0 45 0 0 0 0 0 0 100 95 5 5 6 35 6 4 100 100 100 100 100 100 99 100
57 25 5 2 0 0 0 0 0 0 0 1 0 0 0 0 7 11 5 23 4 34 0 2 100 100 100 100 100 100 99 100
100 17 5 3 1 0 0 0 6 0 0 0 0 0 0 0 3 4 4 33 4 2 0 21 34 100 100 100 100 100 70 100
100 59 8 0 0 0 1 4 0 0 0 80 0 0 0 0 3 0 2 3 0 0 7 39 80 100 100 100 100 100 59 100
100 47 22 43 4 5 5 5 2 0 0 98 100 12 0 0 1 0 0 0 0 5 9 36 99 97 100 100 100 100 100 100
21 61 16 28 5 5 1 0 3 0 0 40 100 68 16 9 51 100 10 0 16 28 4 97 99 100 100 100 100 100 100 100
5 91 100 100 63 5 2 1 1 0 0 0 100 71 2 32 13 9 25 43 20 23 54 64 100 100 100 100 100 100 100 100
97 100 100 100 70 17 2 5 0 0 3 3 4 44 2 0 10 20 60 91 100 77 88 94 100 100 100 100 100 100 100 100
100 100 100 100 69 5 8 5 5 31 31 5 2 37 0 0 1 86 100 79 100 100 100 100 100 100 100 100 100 100 100 100
100 100 100 100 6 5 4 29 100 9 5 4 5 5 0 0 3 97 46 100 100 100 100 100 100 100 100 100 100 100 100 100
100 100 100 100 64 5 24 58 11 11 9 1 5 3 1 0 5 93 41 100 100 100 100 100 100 100 100 100 100 100 100 100
100 100 100 100 100 14 14 5 20 8 5 53 22 1 0 0 6 100 80 99 71 100 100 100 100 100 100 100 100 100 100 100
100 100 100 100 100 100 11 25 6 5 5 8 28 5 0 0 100 92 83 100 57 98 100 100 100 100 100 100 100 100 100 100
100 81 87 33 42 59 5 4 4 5 5 12 5 26 76 81 36 94 100 100 68 97 100 100 100 100 100 100 100 100 100 100
12 5 5 6 54 23 4 5 8 5 5 34 9 1 8 97 98 75 96 100 57 76 100 100 100 100 100 100 100 100 100 100
96 64 5 16 5 5 4 5 42 6 5 59 63 3 0 5 7 62 100 100 99 68 100 100 100 100 100 100 100 100 100 100

GFSFLT2_prec_cloud_111.txt.gz
Cloud_Cover
20 59 98 100 4 5 12 6 0 70 69 76 0 0 0 0 0 3 2 5 5 4 2 100 98 100 100 100 100 93 88 100
36 80 100 100 16 0 0 0 0 0 10 85 0 0 0 0 0 0 4 4 0 0 0 0 85 100 100 100 100 100 99 40
92 95 100 100 89 6 1 0 0 0 0 0 52 0 0 0 0 0 0 1 1 0 18 8 28 100 100 100 100 100 100 80
100 100 100 100 97 11 20 9 37 23 4 8 13 4 1 0 0 0 0 10 89 24 5 5 5 80 100 100 100 100 100 98
96 10 100 100 100 95 16 27 26 22 4 12 10 5 3 0 1 0 2 11 100 59 62 20 11 28 16 100 100 100 100 100
75 99 100 100 100 100 8 0 3 3 0 0 8 19 10 0 23 12 2 7 76 61 43 19 84 6 5 100 100 100 100 100
85 31 100 100 100 100 26 0 0 0 0 0 0 4 1 0 9 14 6 16 11 18 7 11 28 3 1 100 100 100 100 100
100 19 100 100 100 100 38 5 5 1 0 2 0 5 3 2 4 3 11 5 6 3 6 24 22 10 8 46 100 100 100 100
100 100 69 100 100 100 95 93 56 5 5 0 5 0 1 5 7 6 1 8 11 17 38 37 43 30 3 75 100 100 100 100
97 92 100 100 100 100 100 100 100 24 4 5 0 4 4 5 7 3 15 21 10 29 80 100 97 90 47 98 100 100 100 100
11 33 100 100 100 100 100 100 100 99 6 5 4 65 38 5 0 3 90 54 33 33 82 84 100 100 98 95 100 100 100 100
34 4 85 100 100 100 100 100 100 75 5 3 4 7 95 7 60 30 53 80 36 86 94 99 100 82 100 100 100 100 100 100
5 5 65 100 100 100 100 5 100 100 97 4 4 4 30 5 24 12 13 26 100 100 100 100 100 94 100 100 100 100 100 100
96 99 100 100 100 32 10 88 100 100 37 5 5 5 1 5 18 15 16 37 89 100 100 100 100 92 100 100 100 100 100 100
92 100 100 100 100 94 32 75 100 90 27 30 51 5 2 5 5 6 52 100 46 97 100 100 100 100 88 100 100 100 100 100
99 27 86 100 100 100 81 80 99 100 26 7 78 5 5 5 5 12 13 18 32 100 100 83 100 100 100 100 100 100 100 100
100 100 100 100 100 100 100 100 100 100 79 20 11 7 31 59 23 32 37 21 76 100 100 100 100 100 100 100 100 100 100 100
100 100 100 100 100 100 100 100 100 47 5 9 29 4 30 47 37 28 34 70 100 100 100 100 100 100 100 100 100 100 100 100
5 60 100 100 100 100 100 100 100 52 12 17 5 11 5 29 56 68 100 100 100 100 100 100 100 100 100 100 100 100 100 100
100 93 34 5 73 100 100 53 6 35 25 100 100 5 6 74 41 50 62 85 98 100 97 78 100 100 100 100 100 100 100 100

GFSFLT2_prec_cloud_114.txt.gz
Cloud_Cover
71 100 86 10 16 17 20 84 5 6 0 0 0 0 0 0 0 0 1 0 0 0 0 5 5 44 99 100 100 100 100 56
100 100 100 72 43 23 86 100 34 0 5 9 0 0 0 0 0 0 0 5 0 0 0 3 4 5 22 100 100 100 100 98
100 98 86 100 56 57 100 100 83 0 0 10 19 3 0 0 0 0 0 0 0 0 4 5 3 8 45 100 100 100 100 100
100 100 100 100 86 84 100 100 98 4 2 10 26 14 7 0 0 0 0 0 0 0 18 65 41 23 23 95 100 100 100 100
100 100 100 100 100 100 100 100 100 55 30 32 30 26 27 18 18 6 6 0 30 39 66 36 47 17 13 97 99 100 100 100
100 100 100 100 100 100 100 100 100 70 47 30 46 48 40 28 19 19 3 6 83 98 98 23 5 20 86 99 84 5 100 100
83 100 100 89 24 100 100 100 100 98 28 29 33 48 44 17 18 15 15 19 51 100 64 27 14 13 92 82 67 26 100 100
68 87 72 100 90 57 100 100 100 100 67 6 16 8 10 20 26 19 18 7 28 36 38 29 16 14 6 25 10 5 100 100
100 100 62 40 96 41 100 100 100 100 100 30 6 60 5 8 16 39 12 18 22 34 35 35 34 17 8 10 9 5 100 100
94 99 100 69 87 80 99 100 100 100 100 100 92 78 5 47 59 14 22 38 25 44 83 81 42 50 29 34 27 42 97 100
19 100 97 100 22 27 98 100 100 100 100 100 100 80 8 100 78 13 12 40 57 72 100 100 100 100 96 66 62 66 100 100
0 8 99 100 96 46 47 74 100 100 100 100 100 30 33 100 91 41 17 100 97 88 100 100 100 100 100 92 78 98 98 100
0 0 98 100 100 100 100 5 79 100 100 100 73 9 76 58 55 20 40 100 100 100 100 100 100 100 100 100 100 100 100 100
2 0 25 100 100 100 100 18 45 100 93 70 9 65 10 83 42 18 45 100 100 97 100 100 100 100 100 100 100 100 100 100
5 5 76 100 100 100 100 100 100 100 100 100 9 47 94 72 69 20 41 36 100 100 85 100 100 100 100 100 100 100 100 100
5 8 100 100 100 100 100 10 27 100 100 100 92 100 100 100 84 22 32 58 82 100 67 100 100 100 100 100 91 100 100 100
55 36 89 94 56 100 93 62 95 69 100 100 100 100 100 83 19 27 36 36 15 44 81 100 100 100 100 98 100 100 100 100
5 6 10 86 100 100 100 100 100 100 100 100 100 100 97 95 44 35 30 28 13 18 87 100 100 97 97 68 100 100 100 100
5 10 5 22 92 46 100 100 100 100 100 100 100 100 88 64 83 78 69 34 61 48 99 100 91 92 100 100 100 100 100 100
5 86 100 98 36 97 59 100 100 100 100 100 98 36 77 100 99 89 100 57 85 100 100 100 84 100 100 100 100 100 100 100

GFSFLT2_prec_cloud_117.txt.gz
Cloud_Cover
100 30 13 10 21 100 95 5 7 0 5 5 0 0 0 0 0 0 0 0 0 0 2 1 5 5 5 5 42 97 100 97
100 56 57 54 100 100 100 38 22 11 7 5 5 0 0 0 0 0 0 0 0 0 1 5 2 59 3 6 100 100 100 100
100 100 79 97 100 100 44 14 14 12 11 9 22 5 0 0 0 0 0 0 0 0 2 0 15 99 54 9 18 99 76 100
100 100 100 89 100 100 100 100 93 74 42 37 56 25 17 0 0 0 2 0 0 0 0 15 53 81 38 12 23 90 97 100
100 100 100 100 74 100 100 100 100 99 15 40 94 40 36 29 33 27 12 0 27 31 59 58 29 32 24 10 5 49 100 100
100 100 100 100 89 100 100 100 100 96 48 38 95 84 62 44 31 31 30 33 38 41 93 31 11 0 3 5 12 32 57 100
100 87 100 100 100 100 82 100 100 100 100 82 100 100 99 65 33 31 27 36 82 99 100 31 16 3 2 5 66 69 5 69
100 12 5 18 97 100 71 44 100 100 100 100 90 100 100 100 41 40 91 23 81 100 100 34 25 18 21 65 66 28 5 10
100 14 5 1 15 100 100 100 83 100 100 66 72 100 100 100 87 100 100 26 30 38 45 36 36 28 14 22 92 37 5 5
63 99 13 4 78 83 32 56 18 100 100 100 89 100 100 100 99 94 52 80 36 44 76 100 58 34 31 28 25 15 7 14
56 96 100 28 15 13 11 37 36 100 100 100 100 100 100 100 87 100 100 99 83 79 98 98 100 90 76 39 40 63 20 28
5 100 66 90 88 15 36 85 32 96 98 100 100 100 100 55 32 95 100 98 100 100 100 100 100 100 100 100 53 83 92 54
0 5 64 23 77 100 100 100 83 56 99 100 100 100 100 40 46 96 81 88 100 100 100 100 100 100 100 100 100 91 100 76
0 7 9 69 100 100 100 100 100 38 54 100 100 81 68 55 97 100 88 100 100 100 100 100 100 100 100 100 100 100 100 100
3 6 94 73 100 66 92 100 62 98 100 100 100 100 100 100 100 96 99 100 100 100 100 85 100 100 100 100 100 100 100 100
5 7 96 98 90 89 99 80 84 100 100 100 100 91 91 100 100 100 100 100 100 94 100 99 73 100 100 100 100 100 100 100
88 18 59 100 100 85 80 100 100 99 95 100 100 100 92 73 100 100 100 99 100 100 100 100 96 100 100 100 100 100 98 100
100 100 68 100 100 100 97 100 100 100 100 100 100 100 100 100 100 100 100 99 100 100 100 99 100 100 100 100 100 100 88 99
100 100 100 100 100 100 100 100 100 100 100 100 100 100 100 100 100 100 100 98 80 55 99 100 100 100 100 100 96 6 33 100
100 100 100 100 100 100 100 100 100 100 100 100 100 92 76 100 100 100 100 97 44 76 100 100 100 100 100 100 50 83 54 100

GFSFLT2_prec_cloud_120.txt.gz
Cloud_Cover
100 100 100 75 12 93 11 5 5 6 94 0 0 0 4 5 0 0 0 0 0 0 0 0 1 1 5 5 5 5 14 100
100 100 100 99 100 100 100 93 5 6 5 4 0 0 0 5 5 0 0 0 0 0 0 0 0 0 2 5 0 0 5 36
100 100 88 98 100 100 100 100 85 100 78 5 15 6 2 5 34 4 0 0 0 0 1 2 30 20 0 0 2 3 5 6
100 100 100 100 100 100 67 75 100 100 100 81 35 25 20 7 60 5 4 0 0 0 0 7 100 100 61 10 15 3 2 18
100 100 100 100 100 100 100 100 100 100 100 97 85 39 32 35 58 41 17 4 37 30 51 99 63 80 45 37 20 4 6 18
100 100 100 100 99 100 100 100 100 100 100 98 100 98 82 47 49 68 89 34 37 63 98 53 24 18 10 4 1 6 14 14
18 100 100 98 100 100 100 100 100 100 100 92 100 100 100 79 37 100 100 98 65 48 84 41 25 56 45 0 0 0 4 86
5 79 100 100 81 90 100 100 100 100 100 100 100 100 100 100 74 100 100 100 97 86 100 48 35 90 81 10 1 0 0 44
1 5 22 100 28 39 94 100 100 100 100 100 100 100 100 100 100 100 100 100 100 100 100 50 35 75 31 34 42 39 88 0
0 10 11 32 87 53 92 57 79 84 87 100 100 100 100 97 100 100 100 100 100 99 100 100 64 45 38 32 53 33 0 0
2 26 100 42 22 68 19 81 42 100 97 51 97 100 82 100 100 96 95 100 100 100 99 97 100 100 52 33 42 37 17 13
0 12 100 43 8 23 30 72 100 99 37 25 79 92 100 100 100 79 72 99 100 100 100 100 100 98 100 100 65 35 47 48
0 12 93 53 76 83 99 100 99 99 93 35 79 100 99 99 100 65 98 100 100 100 100 100 100 100 100 100 100 100 56 100
1 6 100 63 61 96 97 100 98 91 100 88 100 100 56 73 100 98 100 100 100 100 99 100 100 99 100 100 100 100 100 100
0 77 100 90 36 100 100 89 88 100 100 100 92 47 46 93 100 93 100 100 100 100 98 100 99 100 74 84 96 76 100 100
62 100 100 100 100 100 100 100 100 100 98 96 60 60 100 100 100 100 100 100 100 90 100 100 100 100 100 88 75 100 100 100
87 100 100 100 100 100 100 100 99 100 82 96 96 100 100 100 100 100 100 100 100 71 100 100 92 100 100 98 100 100 100 99
100 100 100 100 100 100 100 100 91 96 88 100 78 100 100 100 100 100 100 100 100 100 100 100 91 87 99 34 100 84 100 100
100 100 100 100 100 100 100 100 100 100 100 100 100 100 100 100 100 100 100 100 100 100 100 100 100 100 100 57 100 100 100 100
100 100 100 100 100 100 100 100 100 100 100 100 100 100 100 100 100 100 100 100 100 100 100 100 100 100 100 100 100 100 100 100

GFSFLT2_prec_cloud_123.txt.gz
Cloud_Cover
35 99 28 18 5 4 16 100 100 98 5 9 4 1 0 0 0 0 5 4 0 0 0 0 0 0 0 3 4 2 4 0
27 69 41 45 30 16 70 100 100 91 100 91 5 7 5 0 0 0 3 83 3 0 0 0 0 0 0 0 0 4 20 1
47 41 51 96 74 45 41 96 100 100 100 97 71 58 41 5 3 4 5 6 29 3 0 0 0 6 0 0 0 0 0 2
22 27 28 39 100 98 92 98 58 97 100 18 62 100 29 40 5 5 5 85 25 5 5 51 74 61 21 13 0 0 0 0
41 35 24 29 27 82 100 100 100 100 100 56 55 95 100 52 52 29 31 98 37 23 73 18 95 100 42 23 1 0 0 0
25 84 64 72 46 74 78 97 100 100 100 100 100 89 100 98 58 71 65 98 40 97 100 100 22 11 10 16 7 0 0 0
1 92 100 100 93 78 100 97 100 100 100 100 100 94 99 68 61 98 74 70 53 100 100 100 57 5 5 5 2 0 0 0
0 12 75 100 100 66 100 98 92 100 100 100 100 100 100 100 85 76 100 65 81 100 100 100 82 6 5 5 99 22 0 0
0 0 33 58 87 58 77 100 100 100 100 100 100 100 100 100 100 96 56 95 97 95 100 100 100 41 7 32 100 15 0 0
5 0 0 36 10 52 81 100 100 100 100 100 100 100 100 100 100 100 77 100 100 100 100 100 100 42 24 13 6 49 21 0
0 4 0 2 5 13 40 70 100 100 100 100 100 100 100 100 100 100 100 93 100 100 100 100 100 99 57 50 39 49 88 20
0 0 6 3 5 31 38 41 39 62 96 48 98 100 100 100 100 100 100 100 100 100 100 100 96 91 76 67 96 84 89 46
0 36 10 53 17 13 5 8 23 92 10 38 12 43 100 100 100 100 100 100 100 100 100 100 100 90 100 100 100 100 100 100
0 29 87 71 7 4 2 9 17 92 67 81 93 100 74 43 94 100 100 100 100 100 100 100 100 100 100 100 100 82 100 76
5 6 76 100 69 81 89 72 68 91 87 100 100 76 35 6 42 66 100 100 100 100 91 100 100 100 100 57 93 71 51 90
72 5 3 64 100 100 100 58 100 100 100 100 100 100 75 32 52 100 100 100 100 100 100 100 88 100 100 96 49 24 9 10
92 62 54 85 57 100 100 100 99 100 100 100 100 100 100 100 100 100 100 100 100 100 100 100 97 100 100 100 97 89 91 37
100 98 98 100 97 99 100 100 100 100 100 100 100 100 100 100 100 100 100 100 100 100 100 83 100 100 100 100 97 99 98 89
100 100 100 98 100 100 100 100 100 100 100 100 100 100 100 100 100 100 100 100 100 100 100 100 100 100 100 100 100 81 94 16
100 100 100 100 99 100 100 100 100 100 100 100 100 100 100 100 100 100 100 100 100 100 100 100 100 100 100 100 100 100 99 4

GFSFLT2_prec_cloud_126.txt.gz
Cloud_Cover
19 0 1 41 0 4 5 5 28 56 11 5 5 5 5 5 2 4 3 0 3 54 93 0 0 0 0 0 0 0 45 21
37 13 0 0 0 8 0 5 5 5 89 100 77 12 83 42 5 6 19 3 7 99 82 5 3 0 0 0 0 10 73 81
57 24 13 3 4 5 53 26 3 59 53 60 99 99 100 87 5 13 5 100 69 38 100 5 5 9 0 0 11 21 92 75
16 16 2 24 9 23 7 4 0 4 6 91 91 99 100 100 9 25 51 72 100 94 99 24 67 4 9 47 1 52 25 96
17 36 20 6 0 10 19 0 39 10 24 94 100 100 100 100 61 82 72 15 5 21 96 100 96 52 18 14 29 9 39 92
63 13 29 11 0 0 1 9 71 25 9 33 37 71 99 100 87 82 100 62 74 27 57 100 100 96 10 18 7 6 34 76
79 6 20 22 11 0 0 2 45 100 100 98 90 31 53 68 93 98 100 96 94 96 99 100 100 100 100 6 3 7 6 20
100 99 64 28 6 29 2 0 2 51 97 99 91 14 36 18 84 95 100 72 100 99 70 100 100 100 100 69 5 12 12 23
96 100 100 100 100 100 98 60 0 0 30 100 100 46 37 99 56 100 100 100 99 93 98 90 100 100 100 100 11 5 1 68
48 100 100 100 95 62 100 17 5 0 27 21 100 99 37 100 100 100 100 100 100 100 93 100 100 100 100 100 62 54 59 43
88 99 52 100 100 12 48 5 65 4 4 0 35 100 93 71 100 100 91 98 100 100 100 100 100 100 99 100 98 90 54 40
100 100 78 95 28 31 3 5 12 3 9 0 0 90 100 100 100 100 100 100 100 100 97 100 100 100 100 100 100 98 88 91
100 87 47 100 19 5 0 0 5 0 6 0 0 84 100 100 60 88 100 100 100 100 98 100 100 100 100 70 60 69 97 56
20 11 24 20 34 5 0 0 3 2 0 0 0 2 76 100 85 100 100 100 100 100 100 100 100 100 99 91 100 99 84 67
5 13 26 26 72 89 20 0 2 7 2 3 5 44 44 92 91 61 54 22 91 100 100 100 100 98 97 100 100 100 11 40
58 28 64 98 94 100 86 99 95 26 8 5 26 21 5 64 92 48 42 100 31 100 100 100 100 100 100 100 81 72 19 92
100 100 100 100 100 92 100 100 100 100 98 85 100 100 75 97 100 42 55 100 98 100 100 100 100 100 100 100 100 92 100 100
100 100 100 100 100 100 100 100 100 100 99 100 100 100 100 100 100 100 100 100 100 100 100 100 100 100 100 100 94 100 100 97
100 100 100 100 100 100 100 100 100 100 90 100 100 100 100 100 100 100 100 100 100 100 100 100 98 100 100 100 100 96 74 100
100 100 100 100 100 100 100 100 100 100 100 100 100 100 100 100 100 100 100 100 100 100 100 100 100 100 100 100 100 72 84 69

GFSFLT2_prec_cloud_132.txt.gz
Cloud_Cover
54 0 0 28 0 0 0 0 0 0 0 0 0 0 0 0 1 5 4 5 54 7 26 5 5 3 5 5 1 0 1 74
57 32 0 0 1 6 0 0 0 0 0 0 0 6 0 0 0 5 84 100 76 98 100 99 28 45 67 5 4 5 2 27
19 100 5 0 0 1 23 8 0 9 2 5 78 0 0 2 0 12 99 100 100 100 100 100 74 60 18 18 5 9 2 13
0 13 100 13 5 5 4 0 0 0 0 27 0 0 0 0 0 3 5 100 99 100 100 100 100 23 11 1 12 98 100 46
5 6 73 100 41 38 5 5 1 0 0 0 0 0 0 0 0 2 89 99 100 100 100 100 96 99 5 0 26 97 71 64
5 5 8 96 100 94 6 5 15 5 1 0 0 0 0 0 0 0 4 100 100 100 100 100 56 100 18 34 57 96 100 69
33 24 48 84 100 100 96 17 5 5 34 99 84 0 0 0 0 0 0 2 46 100 100 100 100 100 84 8 5 53 100 78
80 32 62 52 100 100 100 100 36 11 31 98 100 1 0 0 0 0 0 0 1 4 67 92 100 100 100 44 20 91 100 100
100 100 100 53 23 100 100 97 97 54 99 100 100 16 5 71 35 4 0 0 0 3 85 7 98 100 100 100 68 88 100 100
98 100 99 12 24 6 100 88 99 100 100 100 100 66 22 5 0 4 8 2 0 0 2 58 32 100 100 100 100 100 100 100
2 61 100 100 41 66 70 77 50 100 100 100 100 100 99 5 6 0 4 8 30 0 0 43 22 100 100 100 26 42 100 100
0 0 26 100 100 100 99 100 100 100 100 100 100 100 100 14 1 4 7 39 3 2 0 2 10 11 100 100 100 79 100 100
0 0 0 68 100 100 100 100 100 100 100 100 100 85 79 61 51 4 5 46 0 0 0 0 15 5 5 20 100 96 88 100
1 0 0 0 4 83 100 100 99 44 97 100 100 78 5 32 57 99 52 13 61 95 100 79 47 52 22 59 99 100 89 57
100 0 19 1 0 0 41 100 98 100 100 100 93 28 98 100 70 93 100 100 100 100 100 100 12 54 10 45 92 59 5 12
66 77 34 37 2 45 93 100 100 85 100 100 83 79 99 100 100 99 94 100 100 100 100 90 49 33 96 25 49 7 51 12
96 100 100 100 100 100 100 100 59 65 100 100 100 100 100 100 100 100 100 100 100 100 54 41 24 100 100 6 99 94 100 100
93 100 100 100 100 100 100 100 98 84 98 100 100 100 100 100 100 100 100 100 100 100 100 100 29 100 100 48 96 100 100 100
100 100 100 100 100 100 100 100 100 100 100 100 100 100 100 100 100 100 100 100 100 100 93 100 100 92 100 100 98 100 85 100
100 100 100 100 100 100 100 100 100 100 100 100 100 100 100 100 100 100 100 100 100 100 100 100 99 100 91 100 74 94 100 100